Time,TemperatureF,DewpointF,PressureIn,WindDirection,WindDirectionDegrees,WindSpeedMPH,WindSpeedGustMPH,Humidity,HourlyPrecipIn,Conditions,Clouds,dailyrainin,SolarRadiationWatts/m^2,SoftwareType,DateUTC
2013-02-24 00:00:00,76.5,74.3,29.97,SSE,155,2.0,6.0,93,0.00,,FEW,0.00,0.00,VWS V14.01,2013-02-24 05:00:00,
2013-02-24 00:05:00,76.5,74.3,29.97,SSE,161,0.0,4.0,93,0.00,,FEW,0.00,0.00,VWS V14.01,2013-02-24 05:05:00,
2013-02-24 00:10:00,76.5,74.3,29.97,SE,146,3.0,4.0,93,0.00,,FEW,0.00,0.00,VWS V14.01,2013-02-24 05:10:00,
2013-02-24 00:15:00,76.6,74.4,29.97,South,190,2.0,4.0,93,0.00,,FEW,0.00,0.00,VWS V14.01,2013-02-24 05:15:00,
2013-02-24 00:20:00,76.6,74.4,29.97,SSE,161,2.0,4.0,93,0.00,,FEW,0.00,0.00,VWS V14.01,2013-02-24 05:20:00,
2013-02-24 00:25:00,76.6,74.8,29.97,SSE,158,2.0,4.0,94,0.00,,FEW,0.00,0.00,VWS V14.01,2013-02-24 05:25:00,
2013-02-24 00:30:00,76.7,74.5,29.97,South,189,2.0,6.0,93,0.00,,FEW,0.00,0.00,VWS V14.01,2013-02-24 05:30:00,
2013-02-24 00:35:00,76.8,74.6,29.97,South,173,1.0,4.0,93,0.00,,FEW,0.00,0.00,VWS V14.01,2013-02-24 05:35:00,
2013-02-24 00:40:00,76.8,74.6,29.97,SSE,153,3.0,4.0,93,0.00,,FEW,0.00,0.00,VWS V14.01,2013-02-24 05:40:00,
2013-02-24 00:45:00,76.8,74.6,29.97,South,169,2.0,6.0,93,0.00,,FEW,0.00,0.00,VWS V14.01,2013-02-24 05:45:00,
2013-02-24 00:46:00,76.8,74.6,29.97,SE,139,3.0,6.0,93,0.00,,FEW,0.00,0.00,VWS V14.01,2013-02-24 05:46:00,
2013-02-24 00:50:00,76.7,74.5,29.97,SE,129,0.0,6.0,93,0.00,,FEW,0.00,0.00,VWS V14.01,2013-02-24 05:50:00,
2013-02-24 00:51:00,76.7,74.5,29.97,SSE,158,2.0,6.0,93,0.00,,FEW,0.00,0.00,VWS V14.01,2013-02-24 05:51:00,
2013-02-24 00:55:00,76.7,74.5,29.97,SSE,157,1.0,4.0,93,0.00,,FEW,0.00,0.00,VWS V14.01,2013-02-24 05:55:00,
2013-02-24 00:56:00,76.7,74.5,29.97,SE,146,0.0,4.0,93,0.00,,FEW,0.00,0.00,VWS V14.01,2013-02-24 05:56:00,
2013-02-24 01:00:00,76.7,74.5,29.97,SSE,168,1.0,4.0,93,0.00,,FEW,0.00,0.00,VWS V14.01,2013-02-24 06:00:00,
2013-02-24 01:01:00,76.7,74.5,29.96,South,175,0.0,4.0,93,0.00,,FEW,0.00,0.00,VWS V14.01,2013-02-24 06:01:00,
2013-02-24 01:05:00,76.6,74.4,29.96,SSE,165,2.0,4.0,93,0.00,,FEW,0.00,0.00,VWS V14.01,2013-02-24 06:05:00,
2013-02-24 01:06:00,76.6,74.8,29.96,SSE,168,1.0,4.0,94,0.00,,FEW,0.00,0.00,VWS V14.01,2013-02-24 06:06:00,
2013-02-24 01:10:00,76.6,74.8,29.96,SSE,165,1.0,4.0,94,0.00,,FEW,0.00,0.00,VWS V14.01,2013-02-24 06:10:00,
2013-02-24 01:11:00,76.6,74.8,29.96,SSE,167,4.0,4.0,94,0.00,,FEW,0.00,0.00,VWS V14.01,2013-02-24 06:11:00,
2013-02-24 01:12:00,76.6,74.8,29.96,SSE,151,2.0,4.0,94,0.00,,FEW,0.00,0.00,VWS V14.01,2013-02-24 06:12:00,
2013-02-24 01:15:00,76.6,74.8,29.96,SSE,163,1.0,4.0,94,0.00,,FEW,0.00,0.00,VWS V14.01,2013-02-24 06:15:00,
2013-02-24 01:16:00,76.6,74.8,29.96,SSE,156,2.0,4.0,94,0.00,,FEW,0.00,0.00,VWS V14.01,2013-02-24 06:16:00,
2013-02-24 01:17:00,76.6,74.8,29.96,South,169,2.0,4.0,94,0.00,,FEW,0.00,0.00,VWS V14.01,2013-02-24 06:17:00,
2013-02-24 01:20:00,76.5,74.7,29.96,SE,132,1.0,4.0,94,0.00,,FEW,0.00,0.00,VWS V14.01,2013-02-24 06:20:00,
2013-02-24 01:21:00,76.5,74.7,29.96,SSE,152,1.0,4.0,94,0.00,,FEW,0.00,0.00,VWS V14.01,2013-02-24 06:21:00,
2013-02-24 01:22:00,76.5,74.7,29.96,SSE,160,2.0,3.0,94,0.00,,FEW,0.00,0.00,VWS V14.01,2013-02-24 06:22:00,
2013-02-24 01:25:00,76.5,74.7,29.96,South,180,1.0,3.0,94,0.00,,FEW,0.00,0.00,VWS V14.01,2013-02-24 06:25:00,
2013-02-24 01:26:00,76.5,74.7,29.96,South,188,3.0,3.0,94,0.00,,FEW,0.00,0.00,VWS V14.01,2013-02-24 06:26:00,
2013-02-24 01:27:00,76.5,74.7,29.96,SSE,168,1.0,3.0,94,0.00,,FEW,0.00,0.00,VWS V14.01,2013-02-24 06:27:00,
2013-02-24 01:31:00,76.5,74.7,29.96,South,170,1.0,3.0,94,0.00,,FEW,0.00,0.00,VWS V14.01,2013-02-24 06:31:00,
2013-02-24 01:32:00,76.5,74.7,29.96,South,180,3.0,3.0,94,0.00,,FEW,0.00,0.00,VWS V14.01,2013-02-24 06:32:00,
2013-02-24 01:36:00,76.5,74.7,29.96,South,177,3.0,3.0,94,0.00,,FEW,0.00,0.00,VWS V14.01,2013-02-24 06:36:00,
2013-02-24 01:37:00,76.5,74.7,29.96,SSE,165,2.0,4.0,94,0.00,,FEW,0.00,0.00,VWS V14.01,2013-02-24 06:37:00,
2013-02-24 01:40:00,76.5,74.7,29.96,South,178,5.0,5.0,94,0.00,,FEW,0.00,0.00,VWS V14.01,2013-02-24 06:40:00,
2013-02-24 01:41:00,76.5,74.7,29.96,South,188,3.0,5.0,94,0.00,,FEW,0.00,0.00,VWS V14.01,2013-02-24 06:41:00,
2013-02-24 01:42:00,76.4,74.6,29.96,South,179,1.0,3.0,94,0.00,,FEW,0.00,0.00,VWS V14.01,2013-02-24 06:42:00,
2013-02-24 01:46:00,76.5,74.7,29.95,South,177,1.0,4.0,94,0.00,,FEW,0.00,0.00,VWS V14.01,2013-02-24 06:46:00,
2013-02-24 01:47:00,76.4,74.6,29.95,South,169,2.0,4.0,94,0.00,,FEW,0.00,0.00,VWS V14.01,2013-02-24 06:47:00,
2013-02-24 01:50:00,76.4,74.6,29.95,South,182,2.0,4.0,94,0.00,,FEW,0.00,0.00,VWS V14.01,2013-02-24 06:50:00,
2013-02-24 01:51:00,76.4,74.6,29.95,South,172,1.0,4.0,94,0.00,,FEW,0.00,0.00,VWS V14.01,2013-02-24 06:51:00,
2013-02-24 01:52:00,76.4,74.6,29.95,SSE,163,1.0,3.0,94,0.00,,FEW,0.00,0.00,VWS V14.01,2013-02-24 06:52:00,
2013-02-24 01:56:00,76.4,74.6,29.95,SSE,163,4.0,4.0,94,0.00,,FEW,0.00,0.00,VWS V14.01,2013-02-24 06:56:00,
2013-02-24 01:57:00,76.4,74.6,29.95,South,175,0.0,4.0,94,0.00,,FEW,0.00,0.00,VWS V14.01,2013-02-24 06:57:00,
2013-02-24 02:01:00,76.4,74.6,29.94,South,173,0.0,4.0,94,0.00,,FEW,0.00,0.00,VWS V14.01,2013-02-24 07:01:00,
2013-02-24 02:02:00,76.3,74.4,29.94,South,173,0.0,2.0,94,0.00,,FEW,0.00,0.00,VWS V14.01,2013-02-24 07:02:00,
2013-02-24 02:06:00,76.3,74.4,29.94,South,184,1.0,3.0,94,0.00,,FEW,0.00,0.00,VWS V14.01,2013-02-24 07:06:00,
2013-02-24 02:07:00,76.3,74.4,29.94,South,176,1.0,3.0,94,0.00,,FEW,0.00,0.00,VWS V14.01,2013-02-24 07:07:00,
2013-02-24 02:08:00,76.3,74.4,29.94,South,175,2.0,3.0,94,0.00,,FEW,0.00,0.00,VWS V14.01,2013-02-24 07:08:00,
2013-02-24 02:11:00,76.2,74.3,29.94,SSE,163,1.0,3.0,94,0.00,,FEW,0.00,0.00,VWS V14.01,2013-02-24 07:11:00,
2013-02-24 02:12:00,76.3,74.4,29.94,South,172,2.0,3.0,94,0.00,,FEW,0.00,0.00,VWS V14.01,2013-02-24 07:12:00,
2013-02-24 02:13:00,76.2,74.3,29.94,South,169,2.0,3.0,94,0.00,,FEW,0.00,0.00,VWS V14.01,2013-02-24 07:13:00,
2013-02-24 02:16:00,76.2,74.3,29.94,SSE,166,0.0,4.0,94,0.00,,FEW,0.00,0.00,VWS V14.01,2013-02-24 07:16:00,
2013-02-24 02:17:00,76.2,74.3,29.94,SSE,166,1.0,4.0,94,0.00,,FEW,0.00,0.00,VWS V14.01,2013-02-24 07:17:00,
2013-02-24 02:18:00,76.2,74.3,29.94,SSE,157,1.0,4.0,94,0.00,,FEW,0.00,0.00,VWS V14.01,2013-02-24 07:18:00,
2013-02-24 02:21:00,76.2,74.3,29.94,South,180,0.0,4.0,94,0.00,,FEW,0.00,0.00,VWS V14.01,2013-02-24 07:21:00,
2013-02-24 02:22:00,76.2,74.3,29.94,South,180,0.0,1.0,94,0.00,,FEW,0.00,0.00,VWS V14.01,2013-02-24 07:22:00,
2013-02-24 02:23:00,76.2,74.3,29.94,South,180,0.0,1.0,94,0.00,,FEW,0.00,0.00,VWS V14.01,2013-02-24 07:23:00,
2013-02-24 02:26:00,76.1,74.2,29.94,South,180,0.0,2.0,94,0.00,,FEW,0.00,0.00,VWS V14.01,2013-02-24 07:26:00,
2013-02-24 02:27:00,76.2,74.3,29.94,South,180,1.0,2.0,94,0.00,,FEW,0.00,0.00,VWS V14.01,2013-02-24 07:27:00,
2013-02-24 02:28:00,76.1,74.2,29.94,South,171,2.0,2.0,94,0.00,,FEW,0.00,0.00,VWS V14.01,2013-02-24 07:28:00,
2013-02-24 02:31:00,76.1,74.2,29.93,South,171,1.0,2.0,94,0.00,,FEW,0.00,0.00,VWS V14.01,2013-02-24 07:31:00,
2013-02-24 02:32:00,76.1,74.2,29.93,South,171,1.0,2.0,94,0.00,,FEW,0.00,0.00,VWS V14.01,2013-02-24 07:32:00,
2013-02-24 02:33:00,76.1,74.2,29.93,South,171,1.0,2.0,94,0.00,,FEW,0.00,0.00,VWS V14.01,2013-02-24 07:33:00,
2013-02-24 02:36:00,76.1,74.2,29.93,South,170,2.0,4.0,94,0.00,,FEW,0.00,0.00,VWS V14.01,2013-02-24 07:36:00,
2013-02-24 02:37:00,76.1,74.2,29.93,SSE,167,2.0,4.0,94,0.00,,FEW,0.00,0.00,VWS V14.01,2013-02-24 07:37:00,
2013-02-24 02:38:00,76.0,74.2,29.93,South,180,1.0,4.0,94,0.00,,FEW,0.00,0.00,VWS V14.01,2013-02-24 07:38:00,
2013-02-24 02:41:00,76.0,74.2,29.93,SSE,167,1.0,1.0,94,0.00,,FEW,0.00,0.00,VWS V14.01,2013-02-24 07:41:00,
2013-02-24 02:42:00,76.0,74.2,29.93,SSE,164,0.0,3.0,94,0.00,,FEW,0.00,0.00,VWS V14.01,2013-02-24 07:42:00,
2013-02-24 02:43:00,76.0,74.2,29.93,South,173,2.0,3.0,94,0.00,,FEW,0.00,0.00,VWS V14.01,2013-02-24 07:43:00,
2013-02-24 02:46:00,76.0,74.2,29.93,SSE,165,1.0,4.0,94,0.00,,FEW,0.00,0.00,VWS V14.01,2013-02-24 07:46:00,
2013-02-24 02:47:00,76.0,74.2,29.93,South,179,1.0,4.0,94,0.00,,FEW,0.00,0.00,VWS V14.01,2013-02-24 07:47:00,
2013-02-24 02:48:00,76.0,74.2,29.93,South,172,1.0,4.0,94,0.00,,FEW,0.00,0.00,VWS V14.01,2013-02-24 07:48:00,
2013-02-24 02:49:00,76.0,74.2,29.93,South,172,0.0,4.0,94,0.00,,FEW,0.00,0.00,VWS V14.01,2013-02-24 07:49:00,
2013-02-24 02:51:00,76.0,74.2,29.93,SSE,167,1.0,1.0,94,0.00,,FEW,0.00,0.00,VWS V14.01,2013-02-24 07:51:00,
2013-02-24 02:53:00,76.0,74.2,29.93,SSE,167,1.0,3.0,94,0.00,,FEW,0.00,0.00,VWS V14.01,2013-02-24 07:53:00,
2013-02-24 02:54:00,76.0,74.2,29.93,SSE,167,1.0,3.0,94,0.00,,FEW,0.00,0.00,VWS V14.01,2013-02-24 07:54:00,
2013-02-24 02:57:00,76.0,74.2,29.93,South,170,2.0,3.0,94,0.00,,FEW,0.00,0.00,VWS V14.01,2013-02-24 07:57:00,
2013-02-24 02:58:00,76.0,74.2,29.93,SSE,161,1.0,3.0,94,0.00,,FEW,0.00,0.00,VWS V14.01,2013-02-24 07:58:00,
2013-02-24 02:59:00,76.0,74.2,29.93,South,184,2.0,3.0,94,0.00,,FEW,0.00,0.00,VWS V14.01,2013-02-24 07:59:00,
2013-02-24 03:02:00,76.0,74.2,29.93,South,173,1.0,2.0,94,0.00,,FEW,0.00,0.00,VWS V14.01,2013-02-24 08:02:00,
2013-02-24 03:03:00,76.0,74.2,29.93,South,184,1.0,2.0,94,0.00,,FEW,0.00,0.00,VWS V14.01,2013-02-24 08:03:00,
2013-02-24 03:04:00,76.0,74.2,29.93,SSE,165,2.0,2.0,94,0.00,,FEW,0.00,0.00,VWS V14.01,2013-02-24 08:04:00,
2013-02-24 03:07:00,75.9,74.1,29.93,SSE,161,0.0,4.0,94,0.00,,FEW,0.00,0.00,VWS V14.01,2013-02-24 08:07:00,
2013-02-24 03:08:00,75.9,74.1,29.93,SSE,161,0.0,4.0,94,0.00,,FEW,0.00,0.00,VWS V14.01,2013-02-24 08:08:00,
2013-02-24 03:09:00,75.9,74.1,29.93,SSE,161,2.0,4.0,94,0.00,,FEW,0.00,0.00,VWS V14.01,2013-02-24 08:09:00,
2013-02-24 03:12:00,75.9,74.1,29.93,South,186,0.0,1.0,94,0.00,,FEW,0.00,0.00,VWS V14.01,2013-02-24 08:12:00,
2013-02-24 03:13:00,75.9,74.1,29.93,South,186,1.0,2.0,94,0.00,,FEW,0.00,0.00,VWS V14.01,2013-02-24 08:13:00,
2013-02-24 03:14:00,75.9,74.1,29.93,South,173,1.0,2.0,94,0.00,,FEW,0.00,0.00,VWS V14.01,2013-02-24 08:14:00,
2013-02-24 03:17:00,75.9,74.4,29.93,South,178,1.0,3.0,95,0.00,,FEW,0.00,0.00,VWS V14.01,2013-02-24 08:17:00,
2013-02-24 03:18:00,75.9,74.4,29.93,South,175,1.0,3.0,95,0.00,,FEW,0.00,0.00,VWS V14.01,2013-02-24 08:18:00,
2013-02-24 03:19:00,75.9,74.1,29.93,South,173,2.0,3.0,94,0.00,,FEW,0.00,0.00,VWS V14.01,2013-02-24 08:19:00,
2013-02-24 03:22:00,75.8,74.3,29.93,South,169,1.0,2.0,95,0.00,,FEW,0.00,0.00,VWS V14.01,2013-02-24 08:22:00,
2013-02-24 03:23:00,75.9,74.4,29.93,SSE,164,3.0,3.0,95,0.00,,FEW,0.00,0.00,VWS V14.01,2013-02-24 08:23:00,
2013-02-24 03:25:00,75.8,74.3,29.93,SSE,164,3.0,3.0,95,0.00,,FEW,0.00,0.00,VWS V14.01,2013-02-24 08:25:00,
2013-02-24 03:27:00,75.8,74.3,29.93,SSE,167,2.0,3.0,95,0.00,,FEW,0.00,0.00,VWS V14.01,2013-02-24 08:27:00,
2013-02-24 03:28:00,75.8,74.3,29.93,SSE,167,1.0,3.0,95,0.00,,FEW,0.00,0.00,VWS V14.01,2013-02-24 08:28:00,
2013-02-24 03:30:00,75.8,74.3,29.93,SSW,196,1.0,3.0,95,0.00,,FEW,0.00,0.00,VWS V14.01,2013-02-24 08:30:00,
2013-02-24 03:32:00,75.8,74.3,29.92,South,178,1.0,2.0,95,0.00,,FEW,0.00,0.00,VWS V14.01,2013-02-24 08:32:00,
2013-02-24 03:33:00,75.8,74.3,29.92,South,178,1.0,2.0,95,0.00,,FEW,0.00,0.00,VWS V14.01,2013-02-24 08:33:00,
2013-02-24 03:35:00,75.8,74.3,29.92,South,178,1.0,2.0,95,0.00,,FEW,0.00,0.00,VWS V14.01,2013-02-24 08:35:00,
2013-02-24 03:37:00,75.8,74.3,29.92,South,169,1.0,3.0,95,0.00,,FEW,0.00,0.00,VWS V14.01,2013-02-24 08:37:00,
2013-02-24 03:38:00,75.8,74.3,29.92,South,170,2.0,3.0,95,0.00,,FEW,0.00,0.00,VWS V14.01,2013-02-24 08:38:00,
2013-02-24 03:40:00,75.8,74.3,29.92,South,180,1.0,3.0,95,0.00,,FEW,0.00,0.00,VWS V14.01,2013-02-24 08:40:00,
2013-02-24 03:42:00,75.8,74.3,29.92,South,180,2.0,2.0,95,0.00,,FEW,0.00,0.00,VWS V14.01,2013-02-24 08:42:00,
2013-02-24 03:43:00,75.7,74.2,29.92,South,180,2.0,2.0,95,0.00,,FEW,0.00,0.00,VWS V14.01,2013-02-24 08:43:00,
2013-02-24 03:45:00,75.7,74.2,29.92,South,185,2.0,3.0,95,0.00,,FEW,0.00,0.00,VWS V14.01,2013-02-24 08:45:00,
2013-02-24 03:48:00,75.7,74.2,29.92,South,190,2.0,3.0,95,0.00,,FEW,0.00,0.00,VWS V14.01,2013-02-24 08:48:00,
2013-02-24 03:50:00,75.7,74.2,29.92,South,189,2.0,3.0,95,0.00,,FEW,0.00,0.00,VWS V14.01,2013-02-24 08:50:00,
2013-02-24 03:51:00,75.7,74.2,29.92,SSW,196,1.0,3.0,95,0.00,,FEW,0.00,0.00,VWS V14.01,2013-02-24 08:51:00,
2013-02-24 03:53:00,75.8,74.3,29.92,SSW,193,4.0,4.0,95,0.00,,FEW,0.00,0.00,VWS V14.01,2013-02-24 08:53:00,
2013-02-24 03:55:00,75.7,74.2,29.92,South,184,1.0,4.0,95,0.00,,FEW,0.00,0.00,VWS V14.01,2013-02-24 08:55:00,
2013-02-24 03:56:00,75.8,74.3,29.92,South,189,1.0,4.0,95,0.00,,FEW,0.00,0.00,VWS V14.01,2013-02-24 08:56:00,
2013-02-24 03:58:00,75.8,74.3,29.92,SSW,200,3.0,4.0,95,0.00,,FEW,0.00,0.00,VWS V14.01,2013-02-24 08:58:00,
2013-02-24 04:00:00,75.7,74.2,29.92,South,190,3.0,4.0,95,0.00,,FEW,0.00,0.00,VWS V14.01,2013-02-24 09:00:00,
2013-02-24 04:01:00,75.8,74.3,29.92,South,183,3.0,4.0,95,0.00,,FEW,0.00,0.00,VWS V14.01,2013-02-24 09:01:00,
2013-02-24 04:03:00,75.8,74.3,29.92,South,183,2.0,2.0,95,0.00,,FEW,0.00,0.00,VWS V14.01,2013-02-24 09:03:00,
2013-02-24 04:05:00,75.7,74.2,29.92,South,186,2.0,3.0,95,0.00,,FEW,0.00,0.00,VWS V14.01,2013-02-24 09:05:00,
2013-02-24 04:06:00,75.7,74.2,29.92,South,186,1.0,3.0,95,0.00,,FEW,0.00,0.00,VWS V14.01,2013-02-24 09:06:00,
2013-02-24 04:08:00,75.7,74.2,29.92,South,186,2.0,3.0,95,0.00,,FEW,0.00,0.00,VWS V14.01,2013-02-24 09:08:00,
2013-02-24 04:09:00,75.7,74.2,29.92,South,180,1.0,3.0,95,0.00,,FEW,0.00,0.00,VWS V14.01,2013-02-24 09:09:00,
2013-02-24 04:10:00,75.7,74.2,29.92,South,184,2.0,3.0,95,0.00,,FEW,0.00,0.00,VWS V14.01,2013-02-24 09:10:00,
2013-02-24 04:11:00,75.7,74.2,29.92,South,188,1.0,2.0,95,0.00,,FEW,0.00,0.00,VWS V14.01,2013-02-24 09:11:00,
2013-02-24 04:13:00,75.7,74.2,29.92,South,184,3.0,3.0,95,0.00,,FEW,0.00,0.00,VWS V14.01,2013-02-24 09:13:00,
2013-02-24 04:14:00,75.7,74.2,29.92,SSW,203,1.0,3.0,95,0.00,,FEW,0.00,0.00,VWS V14.01,2013-02-24 09:14:00,
2013-02-24 04:15:00,75.7,74.2,29.92,SSW,213,1.0,3.0,95,0.00,,FEW,0.00,0.00,VWS V14.01,2013-02-24 09:15:00,
2013-02-24 04:17:00,75.7,74.2,29.92,SSW,209,1.0,3.0,95,0.00,,FEW,0.00,0.00,VWS V14.01,2013-02-24 09:17:00,
2013-02-24 04:18:00,75.7,74.2,29.92,SSW,202,2.0,3.0,95,0.00,,FEW,0.00,0.00,VWS V14.01,2013-02-24 09:18:00,
2013-02-24 04:19:00,75.7,74.2,29.92,SSW,202,2.0,3.0,95,0.00,,FEW,0.00,0.00,VWS V14.01,2013-02-24 09:19:00,
2013-02-24 04:21:00,75.7,74.2,29.92,SSW,203,2.0,3.0,95,0.00,,FEW,0.00,0.00,VWS V14.01,2013-02-24 09:21:00,
2013-02-24 04:22:00,75.7,74.2,29.92,SSW,198,0.0,1.0,95,0.00,,FEW,0.00,0.00,VWS V14.01,2013-02-24 09:22:00,
2013-02-24 04:24:00,75.7,74.2,29.92,SSW,198,1.0,2.0,95,0.00,,FEW,0.00,0.00,VWS V14.01,2013-02-24 09:24:00,
2013-02-24 04:26:00,75.7,74.2,29.92,SSW,207,2.0,3.0,95,0.00,,FEW,0.00,0.00,VWS V14.01,2013-02-24 09:26:00,
2013-02-24 04:27:00,75.7,74.2,29.92,SSW,207,1.0,3.0,95,0.00,,FEW,0.00,0.00,VWS V14.01,2013-02-24 09:27:00,
2013-02-24 04:29:00,75.7,74.2,29.92,SSW,207,0.0,3.0,95,0.00,,FEW,0.00,0.00,VWS V14.01,2013-02-24 09:29:00,
2013-02-24 04:31:00,75.7,74.2,29.92,SSW,207,1.0,3.0,95,0.00,,FEW,0.00,0.00,VWS V14.01,2013-02-24 09:31:00,
2013-02-24 04:32:00,75.7,74.2,29.92,SSW,205,2.0,3.0,95,0.00,,FEW,0.00,0.00,VWS V14.01,2013-02-24 09:32:00,
2013-02-24 04:34:00,75.6,74.1,29.92,SSW,205,2.0,3.0,95,0.00,,FEW,0.00,0.00,VWS V14.01,2013-02-24 09:34:00,
2013-02-24 04:36:00,75.6,74.1,29.92,SSW,205,0.0,3.0,95,0.00,,FEW,0.00,0.00,VWS V14.01,2013-02-24 09:36:00,
2013-02-24 04:37:00,75.6,74.1,29.92,SSW,205,1.0,3.0,95,0.00,,FEW,0.00,0.00,VWS V14.01,2013-02-24 09:37:00,
2013-02-24 04:39:00,75.6,74.1,29.92,SSW,205,1.0,3.0,95,0.00,,FEW,0.00,0.00,VWS V14.01,2013-02-24 09:39:00,
2013-02-24 04:41:00,75.6,74.1,29.92,SSW,205,1.0,3.0,95,0.00,,FEW,0.00,0.00,VWS V14.01,2013-02-24 09:41:00,
2013-02-24 04:42:00,75.6,74.1,29.92,SSW,205,1.0,2.0,95,0.00,,FEW,0.00,0.00,VWS V14.01,2013-02-24 09:42:00,
2013-02-24 04:44:00,75.5,74.0,29.92,SSW,205,2.0,3.0,95,0.00,,FEW,0.00,0.00,VWS V14.01,2013-02-24 09:44:00,
2013-02-24 04:46:00,75.6,74.1,29.92,SSW,205,0.0,3.0,95,0.00,,FEW,0.00,0.00,VWS V14.01,2013-02-24 09:46:00,
2013-02-24 04:47:00,75.5,74.0,29.92,SSW,205,1.0,3.0,95,0.00,,FEW,0.00,0.00,VWS V14.01,2013-02-24 09:47:00,
2013-02-24 04:49:00,75.5,74.0,29.92,SSW,205,1.0,3.0,95,0.00,,FEW,0.00,0.00,VWS V14.01,2013-02-24 09:49:00,
2013-02-24 04:51:00,75.5,74.0,29.92,SSW,205,2.0,3.0,95,0.00,,FEW,0.00,0.00,VWS V14.01,2013-02-24 09:51:00,
2013-02-24 04:52:00,75.5,74.0,29.92,SSW,205,1.0,2.0,95,0.00,,FEW,0.00,0.00,VWS V14.01,2013-02-24 09:52:00,
2013-02-24 04:54:00,75.5,74.0,29.92,SSW,205,1.0,3.0,95,0.00,,FEW,0.00,0.00,VWS V14.01,2013-02-24 09:54:00,
2013-02-24 04:56:00,75.5,74.0,29.92,SSW,205,1.0,3.0,95,0.00,,FEW,0.00,0.00,VWS V14.01,2013-02-24 09:56:00,
2013-02-24 04:57:00,75.5,74.0,29.92,SSW,205,2.0,3.0,95,0.00,,FEW,0.00,0.00,VWS V14.01,2013-02-24 09:57:00,
2013-02-24 04:59:00,75.5,74.0,29.92,SSW,205,1.0,3.0,95,0.00,,FEW,0.00,0.00,VWS V14.01,2013-02-24 09:59:00,
2013-02-24 05:01:00,75.5,74.0,29.93,SSW,205,1.0,3.0,95,0.00,,FEW,0.00,0.00,VWS V14.01,2013-02-24 10:01:00,
2013-02-24 05:02:00,75.5,74.0,29.93,SSW,205,1.0,2.0,95,0.00,,FEW,0.00,0.00,VWS V14.01,2013-02-24 10:02:00,
2013-02-24 05:04:00,75.5,74.0,29.93,SSW,205,1.0,2.0,95,0.00,,FEW,0.00,0.00,VWS V14.01,2013-02-24 10:04:00,
2013-02-24 05:05:00,75.5,74.0,29.93,SSW,205,1.0,2.0,95,0.00,,FEW,0.00,0.00,VWS V14.01,2013-02-24 10:05:00,
2013-02-24 05:06:00,75.5,74.0,29.93,SSW,205,1.0,2.0,95,0.00,,FEW,0.00,0.00,VWS V14.01,2013-02-24 10:06:00,
2013-02-24 05:07:00,75.5,74.0,29.93,SSW,205,1.0,2.0,95,0.00,,FEW,0.00,0.00,VWS V14.01,2013-02-24 10:07:00,
2013-02-24 05:09:00,75.5,74.0,29.93,SSW,205,0.0,2.0,95,0.00,,FEW,0.00,0.00,VWS V14.01,2013-02-24 10:09:00,
2013-02-24 05:10:00,75.5,74.0,29.93,SSW,205,1.0,2.0,95,0.00,,FEW,0.00,0.00,VWS V14.01,2013-02-24 10:10:00,
2013-02-24 05:11:00,75.5,74.0,29.93,SSW,205,1.0,2.0,95,0.00,,FEW,0.00,0.00,VWS V14.01,2013-02-24 10:11:00,
2013-02-24 05:12:00,75.4,73.9,29.93,SSW,205,1.0,2.0,95,0.00,,FEW,0.00,0.00,VWS V14.01,2013-02-24 10:12:00,
2013-02-24 05:15:00,75.4,73.9,29.93,SSW,205,1.0,2.0,95,0.00,,FEW,0.00,0.00,VWS V14.01,2013-02-24 10:15:00,
2013-02-24 05:16:00,75.4,73.9,29.92,SSW,205,1.0,2.0,95,0.00,,FEW,0.00,0.00,VWS V14.01,2013-02-24 10:16:00,
2013-02-24 05:17:00,75.4,73.9,29.92,SSW,205,1.0,2.0,95,0.00,,FEW,0.00,0.00,VWS V14.01,2013-02-24 10:17:00,
2013-02-24 05:20:00,75.4,73.9,29.92,SSW,205,0.0,2.0,95,0.00,,FEW,0.00,0.00,VWS V14.01,2013-02-24 10:20:00,
2013-02-24 05:22:00,75.3,73.8,29.92,SSW,205,0.0,0.0,95,0.00,,FEW,0.00,0.00,VWS V14.01,2013-02-24 10:22:00,
2013-02-24 05:23:00,75.3,73.8,29.92,SSW,205,0.0,0.0,95,0.00,,FEW,0.00,0.00,VWS V14.01,2013-02-24 10:23:00,
2013-02-24 05:25:00,75.3,73.8,29.92,SSW,205,0.0,1.0,95,0.00,,FEW,0.00,0.00,VWS V14.01,2013-02-24 10:25:00,
2013-02-24 05:27:00,75.3,73.8,29.92,SSW,205,0.0,1.0,95,0.00,,FEW,0.00,0.00,VWS V14.01,2013-02-24 10:27:00,
2013-02-24 05:28:00,75.3,73.8,29.92,SSW,205,0.0,1.0,95,0.00,,FEW,0.00,0.00,VWS V14.01,2013-02-24 10:28:00,
2013-02-24 05:30:00,75.3,73.8,29.92,SSW,205,0.0,1.0,95,0.00,,FEW,0.00,0.00,VWS V14.01,2013-02-24 10:30:00,
2013-02-24 05:32:00,75.2,73.7,29.93,SSW,205,0.0,0.0,95,0.00,,FEW,0.00,0.00,VWS V14.01,2013-02-24 10:32:00,
2013-02-24 05:33:00,75.2,73.7,29.93,SSW,205,0.0,0.0,95,0.00,,FEW,0.00,0.00,VWS V14.01,2013-02-24 10:33:00,
2013-02-24 05:35:00,75.2,73.7,29.93,SSW,205,0.0,0.0,95,0.00,,FEW,0.00,0.00,VWS V14.01,2013-02-24 10:35:00,
2013-02-24 05:37:00,75.1,73.6,29.93,SSW,205,0.0,1.0,95,0.00,,FEW,0.00,0.00,VWS V14.01,2013-02-24 10:37:00,
2013-02-24 05:39:00,75.1,73.6,29.93,SSW,205,0.0,1.0,95,0.00,,FEW,0.00,0.00,VWS V14.01,2013-02-24 10:39:00,
2013-02-24 05:40:00,75.1,73.6,29.93,SSW,205,0.0,1.0,95,0.00,,FEW,0.00,0.00,VWS V14.01,2013-02-24 10:40:00,
2013-02-24 05:42:00,75.0,73.5,29.93,SSW,205,0.0,0.0,95,0.00,,FEW,0.00,0.00,VWS V14.01,2013-02-24 10:42:00,
2013-02-24 05:44:00,75.0,73.5,29.93,SSW,205,0.0,1.0,95,0.00,,FEW,0.00,0.00,VWS V14.01,2013-02-24 10:44:00,
2013-02-24 05:45:00,75.0,73.5,29.93,SSW,205,1.0,1.0,95,0.00,,FEW,0.00,0.00,VWS V14.01,2013-02-24 10:45:00,
2013-02-24 05:46:00,75.0,73.5,29.93,SSW,205,0.0,1.0,95,0.00,,FEW,0.00,0.00,VWS V14.01,2013-02-24 10:46:00,
2013-02-24 05:47:00,75.0,73.5,29.93,SSW,205,0.0,1.0,95,0.00,,FEW,0.00,0.00,VWS V14.01,2013-02-24 10:47:00,
2013-02-24 05:49:00,75.0,73.5,29.93,SSW,205,0.0,1.0,95,0.00,,FEW,0.00,0.00,VWS V14.01,2013-02-24 10:49:00,
2013-02-24 05:50:00,74.9,73.4,29.93,SSW,205,0.0,1.0,95,0.00,,FEW,0.00,0.00,VWS V14.01,2013-02-24 10:50:00,
2013-02-24 05:51:00,74.9,73.4,29.93,SSW,205,0.0,1.0,95,0.00,,FEW,0.00,0.00,VWS V14.01,2013-02-24 10:51:00,
2013-02-24 05:52:00,74.9,73.4,29.93,SSW,205,0.0,0.0,95,0.00,,FEW,0.00,0.00,VWS V14.01,2013-02-24 10:52:00,
2013-02-24 05:54:00,74.9,73.4,29.93,SSW,205,1.0,1.0,95,0.00,,FEW,0.00,0.00,VWS V14.01,2013-02-24 10:54:00,
2013-02-24 05:55:00,75.0,73.5,29.93,SSW,205,0.0,1.0,95,0.00,,FEW,0.00,0.00,VWS V14.01,2013-02-24 10:55:00,
2013-02-24 05:56:00,74.9,73.4,29.93,SSW,205,0.0,1.0,95,0.00,,FEW,0.00,0.00,VWS V14.01,2013-02-24 10:56:00,
2013-02-24 05:57:00,75.0,73.5,29.93,SSW,205,0.0,1.0,95,0.00,,FEW,0.00,0.00,VWS V14.01,2013-02-24 10:57:00,
2013-02-24 05:59:00,75.0,73.5,29.93,SSW,205,0.0,1.0,95,0.00,,FEW,0.00,0.00,VWS V14.01,2013-02-24 10:59:00,
2013-02-24 06:01:00,75.0,73.5,29.93,SSW,205,0.0,1.0,95,0.00,,FEW,0.00,0.00,VWS V14.01,2013-02-24 11:01:00,
2013-02-24 06:02:00,74.9,73.4,29.93,SSW,205,0.0,1.0,95,0.00,,FEW,0.00,0.00,VWS V14.01,2013-02-24 11:02:00,
2013-02-24 06:04:00,74.9,73.4,29.93,SSW,205,0.0,1.0,95,0.00,,FEW,0.00,0.00,VWS V14.01,2013-02-24 11:04:00,
2013-02-24 06:06:00,74.9,73.4,29.93,SSW,205,0.0,1.0,95,0.00,,FEW,0.00,0.00,VWS V14.01,2013-02-24 11:06:00,
2013-02-24 06:07:00,74.9,73.4,29.93,SSW,205,1.0,1.0,95,0.00,,FEW,0.00,0.00,VWS V14.01,2013-02-24 11:07:00,
2013-02-24 06:09:00,74.9,73.4,29.93,SSW,205,1.0,2.0,95,0.00,,FEW,0.00,0.00,VWS V14.01,2013-02-24 11:09:00,
2013-02-24 06:11:00,75.0,73.8,29.93,SSW,205,1.0,2.0,96,0.00,,FEW,0.00,0.00,VWS V14.01,2013-02-24 11:11:00,
2013-02-24 06:12:00,75.0,73.8,29.93,SSW,205,1.0,1.0,96,0.00,,FEW,0.00,0.00,VWS V14.01,2013-02-24 11:12:00,
2013-02-24 06:14:00,75.0,73.8,29.93,SSW,205,0.0,1.0,96,0.00,,FEW,0.00,0.00,VWS V14.01,2013-02-24 11:14:00,
2013-02-24 06:16:00,75.0,73.8,29.93,SSW,205,0.0,1.0,96,0.00,,FEW,0.00,0.00,VWS V14.01,2013-02-24 11:16:00,
2013-02-24 06:18:00,75.0,73.8,29.93,SSW,205,1.0,1.0,96,0.00,,FEW,0.00,0.00,VWS V14.01,2013-02-24 11:18:00,
2013-02-24 06:19:00,75.0,73.8,29.93,SSW,205,1.0,1.0,96,0.00,,FEW,0.00,0.00,VWS V14.01,2013-02-24 11:19:00,
2013-02-24 06:21:00,75.0,73.8,29.93,SSW,205,0.0,1.0,96,0.00,,FEW,0.00,0.00,VWS V14.01,2013-02-24 11:21:00,
2013-02-24 06:23:00,75.0,73.8,29.93,SSW,205,0.0,1.0,96,0.00,,FEW,0.00,0.00,VWS V14.01,2013-02-24 11:23:00,
2013-02-24 06:25:00,75.0,73.8,29.93,SSW,205,0.0,1.0,96,0.00,,FEW,0.00,0.00,VWS V14.01,2013-02-24 11:25:00,
2013-02-24 06:26:00,75.0,73.8,29.93,SSW,205,0.0,1.0,96,0.00,,FEW,0.00,0.00,VWS V14.01,2013-02-24 11:26:00,
2013-02-24 06:28:00,75.0,73.8,29.93,SSW,205,0.0,1.0,96,0.00,,FEW,0.00,0.00,VWS V14.01,2013-02-24 11:28:00,
2013-02-24 06:30:00,75.0,73.8,29.93,SSW,205,0.0,1.0,96,0.00,,FEW,0.00,0.00,VWS V14.01,2013-02-24 11:30:00,
2013-02-24 06:31:00,75.0,73.8,29.94,SSW,205,2.0,2.0,96,0.00,,FEW,0.00,0.00,VWS V14.01,2013-02-24 11:31:00,
2013-02-24 06:33:00,75.1,73.9,29.94,SSW,205,0.0,2.0,96,0.00,,FEW,0.00,0.00,VWS V14.01,2013-02-24 11:33:00,
2013-02-24 06:35:00,75.1,73.9,29.94,SSW,205,0.0,2.0,96,0.00,,FEW,0.00,0.00,VWS V14.01,2013-02-24 11:35:00,
2013-02-24 06:36:00,75.0,73.8,29.94,SSW,205,1.0,2.0,96,0.00,,FEW,0.00,0.00,VWS V14.01,2013-02-24 11:36:00,
2013-02-24 06:38:00,75.0,73.8,29.94,SSW,205,1.0,2.0,96,0.00,,FEW,0.00,0.00,VWS V14.01,2013-02-24 11:38:00,
2013-02-24 06:40:00,75.0,73.8,29.94,SSW,205,0.0,2.0,96,0.00,,FEW,0.00,0.00,VWS V14.01,2013-02-24 11:40:00,
2013-02-24 06:41:00,75.0,73.8,29.94,SSW,205,0.0,2.0,96,0.00,,FEW,0.00,0.00,VWS V14.01,2013-02-24 11:41:00,
2013-02-24 06:43:00,75.0,73.8,29.94,SSW,205,0.0,1.0,96,0.00,,FEW,0.00,0.00,VWS V14.01,2013-02-24 11:43:00,
2013-02-24 06:45:00,75.0,73.8,29.94,SSW,205,0.0,1.0,96,0.00,,FEW,0.00,0.00,VWS V14.01,2013-02-24 11:45:00,
2013-02-24 06:46:00,75.0,73.8,29.94,SSW,205,1.0,1.0,96,0.00,,FEW,0.00,0.00,VWS V14.01,2013-02-24 11:46:00,
2013-02-24 06:48:00,75.0,73.8,29.94,SSW,205,1.0,1.0,96,0.00,,FEW,0.00,0.00,VWS V14.01,2013-02-24 11:48:00,
2013-02-24 06:51:00,75.0,73.8,29.94,SSW,205,1.0,1.0,96,0.00,,FEW,0.00,0.00,VWS V14.01,2013-02-24 11:51:00,
2013-02-24 06:52:00,75.0,73.8,29.94,SSW,205,1.0,1.0,96,0.00,,FEW,0.00,0.00,VWS V14.01,2013-02-24 11:52:00,
2013-02-24 06:53:00,75.0,73.8,29.94,SSW,205,1.0,2.0,96,0.00,,FEW,0.00,5.00,VWS V14.01,2013-02-24 11:53:00,
2013-02-24 06:56:00,75.0,73.8,29.94,SSW,205,1.0,2.0,96,0.00,,FEW,0.00,7.00,VWS V14.01,2013-02-24 11:56:00,
2013-02-24 06:57:00,75.0,73.8,29.94,SSW,205,0.0,2.0,96,0.00,,FEW,0.00,7.00,VWS V14.01,2013-02-24 11:57:00,
2013-02-24 06:58:00,75.0,73.8,29.94,SSW,205,0.0,2.0,96,0.00,,FEW,0.00,7.00,VWS V14.01,2013-02-24 11:58:00,
2013-02-24 07:01:00,75.0,73.8,29.94,SSW,205,0.0,2.0,96,0.00,,FEW,0.00,11.00,VWS V14.01,2013-02-24 12:01:00,
2013-02-24 07:02:00,75.0,73.8,29.94,SSW,205,0.0,0.0,96,0.00,,FEW,0.00,11.00,VWS V14.01,2013-02-24 12:02:00,
2013-02-24 07:04:00,75.0,73.8,29.94,SSW,205,0.0,1.0,96,0.00,,FEW,0.00,12.00,VWS V14.01,2013-02-24 12:04:00,
2013-02-24 07:06:00,74.9,73.7,29.94,SSW,205,0.0,1.0,96,0.00,,FEW,0.00,16.00,VWS V14.01,2013-02-24 12:06:00,
2013-02-24 07:07:00,74.9,73.7,29.94,SSW,205,0.0,1.0,96,0.00,,FEW,0.00,16.00,VWS V14.01,2013-02-24 12:07:00,
2013-02-24 07:09:00,74.9,73.7,29.94,SSW,205,0.0,1.0,96,0.00,,FEW,0.00,18.00,VWS V14.01,2013-02-24 12:09:00,
2013-02-24 07:11:00,74.9,73.7,29.94,SSW,205,0.0,1.0,96,0.00,,FEW,0.00,21.00,VWS V14.01,2013-02-24 12:11:00,
2013-02-24 07:12:00,74.9,73.7,29.94,SSW,205,0.0,1.0,96,0.00,,FEW,0.00,21.00,VWS V14.01,2013-02-24 12:12:00,
2013-02-24 07:14:00,74.9,73.7,29.94,SSW,205,0.0,1.0,96,0.00,,FEW,0.00,23.00,VWS V14.01,2013-02-24 12:14:00,
2013-02-24 07:16:00,74.9,73.7,29.94,SSW,205,0.0,1.0,96,0.00,,FEW,0.00,25.00,VWS V14.01,2013-02-24 12:16:00,
2013-02-24 07:17:00,74.9,73.7,29.94,SSW,205,0.0,1.0,96,0.00,,FEW,0.00,25.00,VWS V14.01,2013-02-24 12:17:00,
2013-02-24 07:19:00,75.0,73.8,29.94,SSW,205,2.0,2.0,96,0.00,,FEW,0.00,28.00,VWS V14.01,2013-02-24 12:19:00,
2013-02-24 07:21:00,75.0,73.8,29.94,SSW,205,0.0,2.0,96,0.00,,FEW,0.00,30.00,VWS V14.01,2013-02-24 12:21:00,
2013-02-24 07:22:00,75.0,73.8,29.94,SSW,205,0.0,0.0,96,0.00,,FEW,0.00,30.00,VWS V14.01,2013-02-24 12:22:00,
2013-02-24 07:24:00,75.0,73.8,29.94,SSW,205,0.0,0.0,96,0.00,,FEW,0.00,33.00,VWS V14.01,2013-02-24 12:24:00,
2013-02-24 07:27:00,75.0,73.8,29.94,SSW,205,0.0,1.0,96,0.00,,FEW,0.00,37.00,VWS V14.01,2013-02-24 12:27:00,
2013-02-24 07:29:00,75.1,73.9,29.94,SSW,205,0.0,1.0,96,0.00,,FEW,0.00,39.00,VWS V14.01,2013-02-24 12:29:00,
2013-02-24 07:32:00,75.1,73.9,29.94,SSW,205,0.0,1.0,96,0.00,,FEW,0.00,44.00,VWS V14.01,2013-02-24 12:32:00,
2013-02-24 07:33:00,75.1,73.9,29.94,SSW,205,0.0,1.0,96,0.00,,FEW,0.00,47.00,VWS V14.01,2013-02-24 12:33:00,
2013-02-24 07:34:00,75.1,73.9,29.94,SSW,205,0.0,1.0,96,0.00,,FEW,0.00,51.00,VWS V14.01,2013-02-24 12:34:00,
2013-02-24 07:37:00,75.2,74.0,29.94,SSW,205,0.0,1.0,96,0.00,,FEW,0.00,49.00,VWS V14.01,2013-02-24 12:37:00,
2013-02-24 07:38:00,75.2,74.0,29.94,SSW,205,0.0,1.0,96,0.00,,FEW,0.00,54.00,VWS V14.01,2013-02-24 12:38:00,
2013-02-24 07:40:00,75.2,74.0,29.94,SSW,205,2.0,2.0,96,0.00,,FEW,0.00,77.00,VWS V14.01,2013-02-24 12:40:00,
2013-02-24 07:42:00,75.3,74.1,29.94,SSW,205,0.0,0.0,96,0.00,,FEW,0.00,91.00,VWS V14.01,2013-02-24 12:42:00,
2013-02-24 07:43:00,75.3,74.1,29.94,SSW,205,0.0,0.0,96,0.00,,FEW,0.00,98.00,VWS V14.01,2013-02-24 12:43:00,
2013-02-24 07:45:00,75.3,74.1,29.94,SSW,205,0.0,0.0,96,0.00,,FEW,0.00,123.00,VWS V14.01,2013-02-24 12:45:00,
2013-02-24 07:47:00,75.4,74.2,29.95,SSW,205,1.0,2.0,96,0.00,,FEW,0.00,132.00,VWS V14.01,2013-02-24 12:47:00,
2013-02-24 07:48:00,75.5,74.3,29.95,SSW,205,1.0,2.0,96,0.00,,FEW,0.00,134.00,VWS V14.01,2013-02-24 12:48:00,
2013-02-24 07:50:00,75.5,74.3,29.95,SSW,205,1.0,2.0,96,0.00,,FEW,0.00,141.00,VWS V14.01,2013-02-24 12:50:00,
2013-02-24 07:52:00,75.6,74.4,29.95,SSW,198,2.0,3.0,96,0.00,,FEW,0.00,139.00,VWS V14.01,2013-02-24 12:52:00,
2013-02-24 07:53:00,75.6,74.4,29.95,SSW,198,1.0,3.0,96,0.00,,FEW,0.00,146.00,VWS V14.01,2013-02-24 12:53:00,
2013-02-24 07:55:00,75.7,74.5,29.95,SSW,196,2.0,3.0,96,0.00,,FEW,0.00,160.00,VWS V14.01,2013-02-24 12:55:00,
2013-02-24 07:57:00,75.8,74.6,29.95,SSW,196,0.0,3.0,96,0.00,,FEW,0.00,167.00,VWS V14.01,2013-02-24 12:57:00,
2013-02-24 07:58:00,75.8,74.6,29.95,SSW,196,2.0,3.0,96,0.00,,FEW,0.00,171.00,VWS V14.01,2013-02-24 12:58:00,
2013-02-24 08:01:00,75.9,74.7,29.96,SSW,196,1.0,3.0,96,0.00,,FEW,0.00,178.00,VWS V14.01,2013-02-24 13:01:00,
2013-02-24 08:02:00,76.0,74.8,29.96,SSW,196,1.0,2.0,96,0.00,,FEW,0.00,183.00,VWS V14.01,2013-02-24 13:02:00,
2013-02-24 08:03:00,76.0,74.8,29.96,SSW,196,0.0,2.0,96,0.00,,FEW,0.00,188.00,VWS V14.01,2013-02-24 13:03:00,
2013-02-24 08:06:00,76.1,74.9,29.96,SSW,196,1.0,2.0,96,0.00,,FEW,0.00,197.00,VWS V14.01,2013-02-24 13:06:00,
2013-02-24 08:08:00,76.1,74.9,29.96,SSW,196,0.0,2.0,96,0.00,,FEW,0.00,202.00,VWS V14.01,2013-02-24 13:08:00,
2013-02-24 08:09:00,76.1,74.9,29.96,SSW,196,0.0,2.0,96,0.00,,FEW,0.00,206.00,VWS V14.01,2013-02-24 13:09:00,
2013-02-24 08:11:00,76.0,74.8,29.96,SSW,196,0.0,2.0,96,0.00,,FEW,0.00,213.00,VWS V14.01,2013-02-24 13:11:00,
2013-02-24 08:13:00,76.1,74.9,29.96,SSW,196,2.0,2.0,96,0.00,,FEW,0.00,221.00,VWS V14.01,2013-02-24 13:13:00,
2013-02-24 08:14:00,76.1,74.9,29.96,SSW,196,2.0,2.0,96,0.00,,FEW,0.00,223.00,VWS V14.01,2013-02-24 13:14:00,
2013-02-24 08:16:00,76.1,74.9,29.96,SSW,196,1.0,2.0,96,0.00,,FEW,0.00,230.00,VWS V14.01,2013-02-24 13:16:00,
2013-02-24 08:19:00,76.1,74.9,29.96,SSW,196,0.0,2.0,96,0.00,,FEW,0.00,239.00,VWS V14.01,2013-02-24 13:19:00,
2013-02-24 08:21:00,76.2,75.0,29.96,SSW,196,1.0,2.0,96,0.00,,FEW,0.00,246.00,VWS V14.01,2013-02-24 13:21:00,
2013-02-24 08:24:00,76.4,75.2,29.96,SSW,196,0.0,2.0,96,0.00,,FEW,0.00,257.00,VWS V14.01,2013-02-24 13:24:00,
2013-02-24 08:26:00,76.5,75.3,29.96,SSW,196,0.0,2.0,96,0.00,,FEW,0.00,258.00,VWS V14.01,2013-02-24 13:26:00,
2013-02-24 08:29:00,76.6,75.4,29.96,SSW,196,2.0,2.0,96,0.00,,FEW,0.00,278.00,VWS V14.01,2013-02-24 13:29:00,
2013-02-24 08:31:00,76.6,75.4,29.97,SSW,196,1.0,2.0,96,0.00,,FEW,0.00,288.00,VWS V14.01,2013-02-24 13:31:00,
2013-02-24 08:34:00,76.7,75.2,29.97,SSW,202,2.0,3.0,95,0.00,,FEW,0.00,299.00,VWS V14.01,2013-02-24 13:34:00,
2013-02-24 08:36:00,76.7,75.2,29.97,SSW,202,2.0,3.0,95,0.00,,FEW,0.00,306.00,VWS V14.01,2013-02-24 13:36:00,
2013-02-24 08:39:00,76.8,75.3,29.97,SSW,201,1.0,3.0,95,0.00,,FEW,0.00,315.00,VWS V14.01,2013-02-24 13:39:00,
2013-02-24 08:40:00,76.9,75.4,29.97,SSW,201,2.0,3.0,95,0.00,,FEW,0.00,318.00,VWS V14.01,2013-02-24 13:40:00,
2013-02-24 08:41:00,76.9,75.4,29.97,SSW,201,3.0,3.0,95,0.00,,FEW,0.00,322.00,VWS V14.01,2013-02-24 13:41:00,
2013-02-24 08:44:00,77.1,75.6,29.97,SSW,201,2.0,3.0,95,0.00,,FEW,0.00,336.00,VWS V14.01,2013-02-24 13:44:00,
2013-02-24 08:45:00,77.1,75.6,29.97,SSW,201,0.0,3.0,95,0.00,,FEW,0.00,336.00,VWS V14.01,2013-02-24 13:45:00,
2013-02-24 08:46:00,77.2,75.3,29.98,SSW,201,1.0,3.0,94,0.00,,FEW,0.00,338.00,VWS V14.01,2013-02-24 13:46:00,
2013-02-24 08:49:00,77.4,75.5,29.98,SSW,201,1.0,3.0,94,0.00,,FEW,0.00,352.00,VWS V14.01,2013-02-24 13:49:00,
2013-02-24 08:50:00,77.4,75.5,29.98,SSW,201,1.0,3.0,94,0.00,,FEW,0.00,352.00,VWS V14.01,2013-02-24 13:50:00,
2013-02-24 08:51:00,77.5,75.6,29.98,SSW,201,1.0,3.0,94,0.00,,FEW,0.00,359.00,VWS V14.01,2013-02-24 13:51:00,
2013-02-24 08:54:00,77.7,75.8,29.98,SSW,201,1.0,3.0,94,0.00,,FEW,0.00,369.00,VWS V14.01,2013-02-24 13:54:00,
2013-02-24 08:55:00,77.7,75.8,29.98,SSW,201,2.0,3.0,94,0.00,,FEW,0.00,374.00,VWS V14.01,2013-02-24 13:55:00,
2013-02-24 08:56:00,77.8,75.6,29.98,SSW,201,2.0,3.0,93,0.00,,FEW,0.00,376.00,VWS V14.01,2013-02-24 13:56:00,
2013-02-24 09:00:00,78.0,75.8,29.98,SSW,200,1.0,3.0,93,0.00,,FEW,0.00,390.00,VWS V14.01,2013-02-24 14:00:00,
2013-02-24 09:01:00,78.1,75.9,29.99,SSW,200,1.0,3.0,93,0.00,,FEW,0.00,394.00,VWS V14.01,2013-02-24 14:01:00,
2013-02-24 09:05:00,78.2,75.7,29.99,SSW,200,1.0,2.0,92,0.00,,FEW,0.00,408.00,VWS V14.01,2013-02-24 14:05:00,
2013-02-24 09:06:00,78.3,75.8,29.99,SSW,200,2.0,2.0,92,0.00,,FEW,0.00,413.00,VWS V14.01,2013-02-24 14:06:00,
2013-02-24 09:10:00,78.3,75.8,29.99,SSW,200,2.0,2.0,92,0.00,,FEW,0.00,427.00,VWS V14.01,2013-02-24 14:10:00,
2013-02-24 09:11:00,78.3,75.8,29.99,SSW,200,1.0,3.0,92,0.00,,FEW,0.00,427.00,VWS V14.01,2013-02-24 14:11:00,
2013-02-24 09:15:00,78.4,75.6,29.99,SSW,200,0.0,3.0,91,0.00,,FEW,0.00,446.00,VWS V14.01,2013-02-24 14:15:00,
2013-02-24 09:16:00,78.5,75.7,29.99,SSW,200,1.0,3.0,91,0.00,,FEW,0.00,446.00,VWS V14.01,2013-02-24 14:16:00,
2013-02-24 09:20:00,78.6,75.4,29.99,SSW,200,1.0,3.0,90,0.00,,FEW,0.00,461.00,VWS V14.01,2013-02-24 14:20:00,
2013-02-24 09:21:00,78.6,75.4,29.99,SSW,200,1.0,3.0,90,0.00,,FEW,0.00,462.00,VWS V14.01,2013-02-24 14:21:00,
2013-02-24 09:25:00,78.7,75.5,29.99,SSW,200,2.0,2.0,90,0.00,,FEW,0.00,475.00,VWS V14.01,2013-02-24 14:25:00,
2013-02-24 09:26:00,78.7,75.5,29.99,SSW,200,2.0,2.0,90,0.00,,FEW,0.00,475.00,VWS V14.01,2013-02-24 14:26:00,
2013-02-24 09:27:00,78.7,75.5,29.99,SSW,200,2.0,2.0,90,0.00,,FEW,0.00,478.00,VWS V14.01,2013-02-24 14:27:00,
2013-02-24 09:30:00,78.8,75.6,29.99,SSW,200,3.0,3.0,90,0.00,,FEW,0.00,489.00,VWS V14.01,2013-02-24 14:30:00,
2013-02-24 09:31:00,78.8,75.3,29.99,SSW,200,2.0,3.0,89,0.00,,FEW,0.00,489.00,VWS V14.01,2013-02-24 14:31:00,
2013-02-24 09:32:00,78.8,75.3,29.99,SSW,200,3.0,3.0,89,0.00,,FEW,0.00,497.00,VWS V14.01,2013-02-24 14:32:00,
2013-02-24 09:35:00,78.9,75.4,29.99,SSW,201,3.0,3.0,89,0.00,,FEW,0.00,508.00,VWS V14.01,2013-02-24 14:35:00,
2013-02-24 09:36:00,78.9,75.4,29.99,SSW,199,3.0,3.0,89,0.00,,FEW,0.00,510.00,VWS V14.01,2013-02-24 14:36:00,
2013-02-24 09:37:00,78.9,75.4,29.99,SSW,199,2.0,3.0,89,0.00,,FEW,0.00,513.00,VWS V14.01,2013-02-24 14:37:00,
2013-02-24 09:40:00,79.0,75.5,29.99,SSW,196,3.0,3.0,89,0.00,,FEW,0.00,524.00,VWS V14.01,2013-02-24 14:40:00,
2013-02-24 09:41:00,79.0,75.5,29.99,SSW,195,3.0,4.0,89,0.00,,FEW,0.00,527.00,VWS V14.01,2013-02-24 14:41:00,
2013-02-24 09:42:00,79.0,75.5,29.99,SSW,196,4.0,4.0,89,0.00,,FEW,0.00,533.00,VWS V14.01,2013-02-24 14:42:00,
2013-02-24 09:45:00,79.1,75.6,29.99,SSW,192,3.0,4.0,89,0.00,,FEW,0.00,545.00,VWS V14.01,2013-02-24 14:45:00,
2013-02-24 09:46:00,79.1,75.6,29.99,SSW,200,4.0,4.0,89,0.00,,FEW,0.00,545.00,VWS V14.01,2013-02-24 14:46:00,
2013-02-24 09:47:00,79.2,75.7,29.99,South,186,3.0,4.0,89,0.00,,FEW,0.00,545.00,VWS V14.01,2013-02-24 14:47:00,
2013-02-24 09:50:00,79.4,75.9,29.99,SW,214,4.0,4.0,89,0.00,,FEW,0.00,563.00,VWS V14.01,2013-02-24 14:50:00,
2013-02-24 09:51:00,79.4,75.5,29.99,SSW,196,4.0,4.0,88,0.00,,FEW,0.00,563.00,VWS V14.01,2013-02-24 14:51:00,
2013-02-24 09:52:00,79.3,75.4,29.99,SSW,203,3.0,4.0,88,0.00,,FEW,0.00,563.00,VWS V14.01,2013-02-24 14:52:00,
2013-02-24 09:56:00,79.4,75.5,29.99,South,188,3.0,5.0,88,0.00,,FEW,0.00,575.00,VWS V14.01,2013-02-24 14:56:00,
2013-02-24 09:57:00,79.4,75.5,29.99,SSW,209,2.0,5.0,88,0.00,,FEW,0.00,577.00,VWS V14.01,2013-02-24 14:57:00,
2013-02-24 10:01:00,79.3,75.4,29.99,SSW,205,4.0,5.0,88,0.00,,FEW,0.00,587.00,VWS V14.01,2013-02-24 15:01:00,
2013-02-24 10:02:00,79.3,75.4,29.99,SSW,196,3.0,4.0,88,0.00,,FEW,0.00,594.00,VWS V14.01,2013-02-24 15:02:00,
2013-02-24 10:06:00,79.3,75.4,29.99,SSW,198,2.0,4.0,88,0.00,,FEW,0.00,606.00,VWS V14.01,2013-02-24 15:06:00,
2013-02-24 10:07:00,79.3,75.4,29.99,SSW,204,1.0,4.0,88,0.00,,FEW,0.00,608.00,VWS V14.01,2013-02-24 15:07:00,
2013-02-24 10:11:00,79.6,75.7,29.99,SSW,201,2.0,5.0,88,0.00,,FEW,0.00,615.00,VWS V14.01,2013-02-24 15:11:00,
2013-02-24 10:12:00,79.6,75.7,29.99,SSW,202,3.0,4.0,88,0.00,,FEW,0.00,622.00,VWS V14.01,2013-02-24 15:12:00,
2013-02-24 10:16:00,79.7,75.8,29.99,SSW,196,4.0,4.0,88,0.00,,FEW,0.00,629.00,VWS V14.01,2013-02-24 15:16:00,
2013-02-24 10:17:00,79.7,75.5,29.99,SSW,198,4.0,4.0,87,0.00,,FEW,0.00,631.00,VWS V14.01,2013-02-24 15:17:00,
2013-02-24 10:21:00,79.7,75.8,29.99,SW,219,3.0,4.0,88,0.00,,FEW,0.00,643.00,VWS V14.01,2013-02-24 15:21:00,
2013-02-24 10:22:00,79.7,75.5,29.99,SSW,200,2.0,4.0,87,0.00,,FEW,0.00,647.00,VWS V14.01,2013-02-24 15:22:00,
2013-02-24 10:23:00,79.8,75.6,29.99,SSW,211,4.0,4.0,87,0.00,,FEW,0.00,652.00,VWS V14.01,2013-02-24 15:23:00,
2013-02-24 10:26:00,79.8,75.6,29.99,SSW,203,4.0,5.0,87,0.00,,FEW,0.00,656.00,VWS V14.01,2013-02-24 15:26:00,
2013-02-24 10:27:00,79.8,75.6,29.99,SSW,197,4.0,5.0,87,0.00,,FEW,0.00,659.00,VWS V14.01,2013-02-24 15:27:00,
2013-02-24 10:29:00,79.8,75.6,29.99,SSW,198,3.0,5.0,87,0.00,,FEW,0.00,666.00,VWS V14.01,2013-02-24 15:29:00,
2013-02-24 10:31:00,80.2,76.3,29.99,SSE,160,2.0,5.0,88,0.00,,FEW,0.00,670.00,VWS V14.01,2013-02-24 15:31:00,
2013-02-24 10:32:00,80.5,76.3,29.99,SSW,198,3.0,3.0,87,0.00,,FEW,0.00,675.00,VWS V14.01,2013-02-24 15:32:00,
2013-02-24 10:33:00,80.5,76.3,29.99,South,185,3.0,3.0,87,0.00,,FEW,0.00,675.00,VWS V14.01,2013-02-24 15:33:00,
2013-02-24 10:34:00,80.5,76.3,29.99,South,181,3.0,3.0,87,0.00,,FEW,0.00,677.00,VWS V14.01,2013-02-24 15:34:00,
2013-02-24 10:36:00,80.6,76.4,29.99,SSE,167,4.0,5.0,87,0.00,,FEW,0.00,689.00,VWS V14.01,2013-02-24 15:36:00,
2013-02-24 10:37:00,80.7,76.1,29.99,South,169,3.0,5.0,86,0.00,,FEW,0.00,689.00,VWS V14.01,2013-02-24 15:37:00,
2013-02-24 10:38:00,80.7,76.5,29.99,SSE,164,1.0,5.0,87,0.00,,FEW,0.00,689.00,VWS V14.01,2013-02-24 15:38:00,
2013-02-24 10:41:00,81.0,76.4,29.99,SSE,163,2.0,3.0,86,0.00,,FEW,0.00,701.00,VWS V14.01,2013-02-24 15:41:00,
2013-02-24 10:42:00,81.1,76.5,29.99,SW,220,3.0,3.0,86,0.00,,FEW,0.00,700.00,VWS V14.01,2013-02-24 15:42:00,
2013-02-24 10:43:00,81.2,76.6,29.99,South,188,2.0,3.0,86,0.00,,FEW,0.00,705.00,VWS V14.01,2013-02-24 15:43:00,
2013-02-24 10:46:00,81.2,76.3,29.99,SSE,167,3.0,4.0,85,0.00,,FEW,0.00,712.00,VWS V14.01,2013-02-24 15:46:00,
2013-02-24 10:48:00,81.1,76.2,29.99,SSW,213,3.0,4.0,85,0.00,,FEW,0.00,712.00,VWS V14.01,2013-02-24 15:48:00,
2013-02-24 10:51:00,81.0,76.1,29.99,South,180,2.0,5.0,85,0.00,,FEW,0.00,731.00,VWS V14.01,2013-02-24 15:51:00,
2013-02-24 10:52:00,81.0,76.1,29.99,SE,145,2.0,4.0,85,0.00,,FEW,0.00,726.00,VWS V14.01,2013-02-24 15:52:00,
2013-02-24 10:53:00,81.0,76.4,29.99,South,182,3.0,4.0,86,0.00,,FEW,0.00,670.00,VWS V14.01,2013-02-24 15:53:00,
2013-02-24 10:56:00,81.4,76.5,29.99,South,190,3.0,6.0,85,0.00,,FEW,0.00,749.00,VWS V14.01,2013-02-24 15:56:00,
2013-02-24 10:57:00,81.4,76.5,29.99,SSW,199,3.0,6.0,85,0.00,,FEW,0.00,749.00,VWS V14.01,2013-02-24 15:57:00,
2013-02-24 10:58:00,81.3,76.0,29.99,South,184,3.0,6.0,84,0.00,,FEW,0.00,740.00,VWS V14.01,2013-02-24 15:58:00,
2013-02-24 11:01:00,81.4,76.5,29.99,SSE,161,4.0,4.0,85,0.00,,FEW,0.00,759.00,VWS V14.01,2013-02-24 16:01:00,
2013-02-24 11:02:00,81.4,76.5,29.99,SSE,168,4.0,4.0,85,0.00,,FEW,0.00,759.00,VWS V14.01,2013-02-24 16:02:00,
2013-02-24 11:03:00,81.4,76.1,29.99,SSE,159,3.0,4.0,84,0.00,,FEW,0.00,761.00,VWS V14.01,2013-02-24 16:03:00,
2013-02-24 11:07:00,81.6,76.3,29.99,SSE,157,2.0,4.0,84,0.00,,FEW,0.00,768.00,VWS V14.01,2013-02-24 16:07:00,
2013-02-24 11:08:00,81.7,76.4,29.99,SSE,163,3.0,4.0,84,0.00,,FEW,0.00,770.00,VWS V14.01,2013-02-24 16:08:00,
2013-02-24 11:12:00,81.8,76.5,29.99,South,189,3.0,3.0,84,0.00,,FEW,0.00,773.00,VWS V14.01,2013-02-24 16:12:00,
2013-02-24 11:13:00,81.8,76.5,29.99,SSW,202,4.0,4.0,84,0.00,,FEW,0.00,775.00,VWS V14.01,2013-02-24 16:13:00,
2013-02-24 11:17:00,81.7,76.4,29.99,SW,215,3.0,4.0,84,0.00,,FEW,0.00,779.00,VWS V14.01,2013-02-24 16:17:00,
2013-02-24 11:18:00,81.7,76.4,29.99,South,171,4.0,5.0,84,0.00,,FEW,0.00,780.00,VWS V14.01,2013-02-24 16:18:00,
2013-02-24 11:19:00,81.6,76.3,29.99,SSW,198,4.0,5.0,84,0.00,,FEW,0.00,779.00,VWS V14.01,2013-02-24 16:19:00,
2013-02-24 11:22:00,81.7,76.4,29.99,South,190,3.0,3.0,84,0.00,,FEW,0.00,798.00,VWS V14.01,2013-02-24 16:22:00,
2013-02-24 11:23:00,81.6,76.3,29.99,SSE,155,1.0,4.0,84,0.00,,FEW,0.00,802.00,VWS V14.01,2013-02-24 16:23:00,
2013-02-24 11:24:00,81.6,76.3,29.99,SE,141,3.0,4.0,84,0.00,,FEW,0.00,817.00,VWS V14.01,2013-02-24 16:24:00,
2013-02-24 11:27:00,81.6,75.9,29.99,SSW,211,2.0,5.0,83,0.00,,FEW,0.00,800.00,VWS V14.01,2013-02-24 16:27:00,
2013-02-24 11:28:00,81.5,75.8,29.99,South,185,2.0,5.0,83,0.00,,FEW,0.00,803.00,VWS V14.01,2013-02-24 16:28:00,
2013-02-24 11:29:00,81.5,76.2,29.99,SSW,207,4.0,5.0,84,0.00,,FEW,0.00,816.00,VWS V14.01,2013-02-24 16:29:00,
2013-02-24 11:32:00,81.8,76.5,29.99,South,173,2.0,4.0,84,0.00,,FEW,0.00,819.00,VWS V14.01,2013-02-24 16:32:00,
2013-02-24 11:33:00,82.1,76.4,29.99,South,171,3.0,5.0,83,0.00,,FEW,0.00,812.00,VWS V14.01,2013-02-24 16:33:00,
2013-02-24 11:34:00,82.2,76.2,29.99,SE,145,1.0,5.0,82,0.00,,FEW,0.00,809.00,VWS V14.01,2013-02-24 16:34:00,
2013-02-24 11:37:00,82.3,75.9,29.99,South,188,2.0,5.0,81,0.00,,FEW,0.00,803.00,VWS V14.01,2013-02-24 16:37:00,
2013-02-24 11:38:00,82.3,75.9,29.99,South,180,2.0,5.0,81,0.00,,FEW,0.00,803.00,VWS V14.01,2013-02-24 16:38:00,
2013-02-24 11:39:00,82.1,75.7,29.99,SE,140,3.0,5.0,81,0.00,,FEW,0.00,807.00,VWS V14.01,2013-02-24 16:39:00,
2013-02-24 11:42:00,82.0,75.6,29.99,SE,137,2.0,3.0,81,0.00,,FEW,0.00,819.00,VWS V14.01,2013-02-24 16:42:00,
2013-02-24 11:43:00,82.1,75.7,29.99,SSW,196,5.0,5.0,81,0.00,,FEW,0.00,817.00,VWS V14.01,2013-02-24 16:43:00,
2013-02-24 11:44:00,82.0,76.0,29.99,South,178,4.0,5.0,82,0.00,,FEW,0.00,823.00,VWS V14.01,2013-02-24 16:44:00,
2013-02-24 11:47:00,81.8,75.4,29.98,South,179,5.0,6.0,81,0.00,,FEW,0.00,817.00,VWS V14.01,2013-02-24 16:47:00,
2013-02-24 11:48:00,81.8,75.4,29.98,SSW,208,4.0,6.0,81,0.00,,FEW,0.00,817.00,VWS V14.01,2013-02-24 16:48:00,
2013-02-24 11:50:00,81.8,75.4,29.98,South,176,2.0,6.0,81,0.00,,FEW,0.00,817.00,VWS V14.01,2013-02-24 16:50:00,
2013-02-24 11:53:00,81.9,75.5,29.98,SSW,207,3.0,5.0,81,0.00,,FEW,0.00,823.00,VWS V14.01,2013-02-24 16:53:00,
2013-02-24 11:55:00,81.9,75.5,29.98,SSE,149,3.0,5.0,81,0.00,,FEW,0.00,821.00,VWS V14.01,2013-02-24 16:55:00,
2013-02-24 11:58:00,82.1,75.7,29.98,South,173,3.0,6.0,81,0.00,,FEW,0.00,824.00,VWS V14.01,2013-02-24 16:58:00,
2013-02-24 11:59:00,82.0,75.6,29.98,South,177,3.0,6.0,81,0.00,,FEW,0.00,823.00,VWS V14.01,2013-02-24 16:59:00,
2013-02-24 12:00:00,82.0,75.6,29.98,South,169,3.0,6.0,81,0.00,,FEW,0.00,824.00,VWS V14.01,2013-02-24 17:00:00,
2013-02-24 12:03:00,81.9,75.9,29.97,SSW,195,3.0,5.0,82,0.00,,FEW,0.00,823.00,VWS V14.01,2013-02-24 17:03:00,
2013-02-24 12:04:00,82.0,76.0,29.97,SSE,150,3.0,5.0,82,0.00,,FEW,0.00,824.00,VWS V14.01,2013-02-24 17:04:00,
2013-02-24 12:05:00,82.0,75.6,29.97,South,175,1.0,5.0,81,0.00,,FEW,0.00,824.00,VWS V14.01,2013-02-24 17:05:00,
2013-02-24 12:08:00,82.3,75.9,29.97,SSW,211,3.0,5.0,81,0.00,,FEW,0.00,830.00,VWS V14.01,2013-02-24 17:08:00,
2013-02-24 12:09:00,82.2,75.8,29.97,SSW,198,3.0,5.0,81,0.00,,FEW,0.00,830.00,VWS V14.01,2013-02-24 17:09:00,
2013-02-24 12:10:00,82.2,75.8,29.97,South,180,1.0,5.0,81,0.00,,FEW,0.00,830.00,VWS V14.01,2013-02-24 17:10:00,
2013-02-24 12:13:00,82.0,75.6,29.97,South,174,3.0,5.0,81,0.00,,FEW,0.00,835.00,VWS V14.01,2013-02-24 17:13:00,
2013-02-24 12:14:00,82.0,75.6,29.97,SE,131,3.0,5.0,81,0.00,,FEW,0.00,835.00,VWS V14.01,2013-02-24 17:14:00,
2013-02-24 12:15:00,82.1,75.7,29.97,SSE,167,4.0,5.0,81,0.00,,FEW,0.00,835.00,VWS V14.01,2013-02-24 17:15:00,
2013-02-24 12:18:00,82.3,75.9,29.97,South,169,1.0,5.0,81,0.00,,FEW,0.00,831.00,VWS V14.01,2013-02-24 17:18:00,
2013-02-24 12:19:00,82.3,75.9,29.97,SSE,163,3.0,5.0,81,0.00,,FEW,0.00,830.00,VWS V14.01,2013-02-24 17:19:00,
2013-02-24 12:20:00,82.3,75.9,29.97,SSE,157,2.0,5.0,81,0.00,,FEW,0.00,828.00,VWS V14.01,2013-02-24 17:20:00,
2013-02-24 12:23:00,82.3,75.9,29.97,SSE,168,4.0,6.0,81,0.00,,FEW,0.00,835.00,VWS V14.01,2013-02-24 17:23:00,
2013-02-24 12:24:00,82.3,75.9,29.97,SSW,195,4.0,6.0,81,0.00,,FEW,0.00,835.00,VWS V14.01,2013-02-24 17:24:00,
2013-02-24 12:25:00,82.3,75.9,29.97,SW,219,3.0,3.0,81,0.00,,FEW,0.00,835.00,VWS V14.01,2013-02-24 17:25:00,
2013-02-24 12:28:00,82.1,75.7,29.97,SSE,168,4.0,5.0,81,0.00,,FEW,0.00,833.00,VWS V14.01,2013-02-24 17:28:00,
2013-02-24 12:29:00,82.1,75.7,29.97,South,169,3.0,5.0,81,0.00,,FEW,0.00,833.00,VWS V14.01,2013-02-24 17:29:00,
2013-02-24 12:30:00,82.0,75.6,29.97,SE,136,2.0,5.0,81,0.00,,FEW,0.00,840.00,VWS V14.01,2013-02-24 17:30:00,
2013-02-24 12:33:00,81.9,75.9,29.96,SSE,150,4.0,6.0,82,0.00,,FEW,0.00,835.00,VWS V14.01,2013-02-24 17:33:00,
2013-02-24 12:34:00,82.0,76.0,29.96,SSE,159,2.0,6.0,82,0.00,,FEW,0.00,835.00,VWS V14.01,2013-02-24 17:34:00,
2013-02-24 12:35:00,82.0,76.0,29.96,SSE,157,3.0,6.0,82,0.00,,FEW,0.00,835.00,VWS V14.01,2013-02-24 17:35:00,
2013-02-24 12:39:00,82.1,75.7,29.96,SE,143,3.0,6.0,81,0.00,,FEW,0.00,831.00,VWS V14.01,2013-02-24 17:39:00,
2013-02-24 12:40:00,82.1,76.1,29.96,South,184,4.0,6.0,82,0.00,,FEW,0.00,830.00,VWS V14.01,2013-02-24 17:40:00,
2013-02-24 12:44:00,81.5,75.1,29.96,SSW,196,2.0,5.0,81,0.00,,FEW,0.00,830.00,VWS V14.01,2013-02-24 17:44:00,
2013-02-24 12:45:00,81.7,75.7,29.96,South,179,4.0,5.0,82,0.00,,FEW,0.00,835.00,VWS V14.01,2013-02-24 17:45:00,
2013-02-24 12:46:00,81.7,75.7,29.95,SSE,164,6.0,6.0,82,0.00,,FEW,0.00,831.00,VWS V14.01,2013-02-24 17:46:00,
2013-02-24 12:49:00,82.0,75.6,29.95,South,188,4.0,6.0,81,0.00,,FEW,0.00,831.00,VWS V14.01,2013-02-24 17:49:00,
2013-02-24 12:50:00,82.2,76.2,29.95,South,187,3.0,6.0,82,0.00,,FEW,0.00,830.00,VWS V14.01,2013-02-24 17:50:00,
2013-02-24 12:51:00,82.3,76.3,29.95,SSE,165,2.0,6.0,82,0.00,,FEW,0.00,830.00,VWS V14.01,2013-02-24 17:51:00,
2013-02-24 12:54:00,82.5,76.1,29.95,South,170,1.0,5.0,81,0.00,,FEW,0.00,833.00,VWS V14.01,2013-02-24 17:54:00,
2013-02-24 12:55:00,82.7,76.3,29.95,South,178,2.0,5.0,81,0.00,,FEW,0.00,833.00,VWS V14.01,2013-02-24 17:55:00,
2013-02-24 12:56:00,82.8,76.4,29.95,South,180,3.0,5.0,81,0.00,,FEW,0.00,833.00,VWS V14.01,2013-02-24 17:56:00,
2013-02-24 12:59:00,82.7,75.5,29.95,SSW,192,3.0,6.0,79,0.00,,FEW,0.00,821.00,VWS V14.01,2013-02-24 17:59:00,
2013-02-24 13:00:00,82.6,75.8,29.95,South,173,4.0,6.0,80,0.00,,FEW,0.00,823.00,VWS V14.01,2013-02-24 18:00:00,
2013-02-24 13:01:00,82.6,75.8,29.94,SE,138,1.0,6.0,80,0.00,,FEW,0.00,831.00,VWS V14.01,2013-02-24 18:01:00,
2013-02-24 13:04:00,82.7,75.5,29.94,SSW,196,3.0,5.0,79,0.00,,FEW,0.00,831.00,VWS V14.01,2013-02-24 18:04:00,
2013-02-24 13:05:00,82.5,75.3,29.94,SW,215,4.0,5.0,79,0.00,,FEW,0.00,831.00,VWS V14.01,2013-02-24 18:05:00,
2013-02-24 13:06:00,82.5,75.3,29.94,SSE,164,2.0,7.0,79,0.00,,FEW,0.00,828.00,VWS V14.01,2013-02-24 18:06:00,
2013-02-24 13:09:00,82.5,75.7,29.94,SSW,192,4.0,7.0,80,0.00,,FEW,0.00,826.00,VWS V14.01,2013-02-24 18:09:00,
2013-02-24 13:10:00,82.6,75.8,29.94,SSE,162,2.0,7.0,80,0.00,,FEW,0.00,823.00,VWS V14.01,2013-02-24 18:10:00,
2013-02-24 13:11:00,82.4,75.2,29.94,South,171,3.0,7.0,79,0.00,,FEW,0.00,821.00,VWS V14.01,2013-02-24 18:11:00,
2013-02-24 13:14:00,82.1,75.3,29.94,SSW,209,2.0,6.0,80,0.00,,FEW,0.00,819.00,VWS V14.01,2013-02-24 18:14:00,
2013-02-24 13:15:00,82.1,75.3,29.94,SSE,163,3.0,6.0,80,0.00,,FEW,0.00,819.00,VWS V14.01,2013-02-24 18:15:00,
2013-02-24 13:16:00,82.1,75.3,29.94,SSE,156,2.0,6.0,80,0.00,,FEW,0.00,819.00,VWS V14.01,2013-02-24 18:16:00,
2013-02-24 13:20:00,82.3,75.1,29.94,South,180,7.0,7.0,79,0.00,,FEW,0.00,816.00,VWS V14.01,2013-02-24 18:20:00,
2013-02-24 13:21:00,82.2,75.0,29.94,SW,218,1.0,7.0,79,0.00,,FEW,0.00,817.00,VWS V14.01,2013-02-24 18:21:00,
2013-02-24 13:25:00,82.4,75.2,29.94,SE,131,2.0,6.0,79,0.00,,FEW,0.00,812.00,VWS V14.01,2013-02-24 18:25:00,
2013-02-24 13:26:00,82.4,75.2,29.94,South,190,2.0,6.0,79,0.00,,FEW,0.00,812.00,VWS V14.01,2013-02-24 18:26:00,
2013-02-24 13:30:00,82.3,75.5,29.94,SSE,165,4.0,6.0,80,0.00,,FEW,0.00,805.00,VWS V14.01,2013-02-24 18:30:00,
2013-02-24 13:31:00,82.3,75.1,29.94,SSW,199,3.0,6.0,79,0.00,,FEW,0.00,800.00,VWS V14.01,2013-02-24 18:31:00,
2013-02-24 13:35:00,82.5,75.3,29.94,SE,141,3.0,5.0,79,0.00,,FEW,0.00,798.00,VWS V14.01,2013-02-24 18:35:00,
2013-02-24 13:36:00,82.4,75.2,29.94,SSE,153,2.0,5.0,79,0.00,,FEW,0.00,796.00,VWS V14.01,2013-02-24 18:36:00,
2013-02-24 13:40:00,81.9,75.1,29.94,SE,130,4.0,6.0,80,0.00,,FEW,0.00,793.00,VWS V14.01,2013-02-24 18:40:00,
2013-02-24 13:41:00,81.9,75.5,29.94,SSE,150,4.0,6.0,81,0.00,,FEW,0.00,795.00,VWS V14.01,2013-02-24 18:41:00,
2013-02-24 13:45:00,82.2,75.4,29.94,SSW,206,5.0,5.0,80,0.00,,FEW,0.00,789.00,VWS V14.01,2013-02-24 18:45:00,
2013-02-24 13:46:00,82.3,75.5,29.93,SSW,213,2.0,5.0,80,0.00,,FEW,0.00,788.00,VWS V14.01,2013-02-24 18:46:00,
2013-02-24 13:50:00,82.5,75.7,29.93,SE,140,2.0,5.0,80,0.00,,FEW,0.00,782.00,VWS V14.01,2013-02-24 18:50:00,
2013-02-24 13:51:00,82.5,75.3,29.93,SSW,213,3.0,5.0,79,0.00,,FEW,0.00,784.00,VWS V14.01,2013-02-24 18:51:00,
2013-02-24 13:52:00,82.6,75.4,29.93,South,171,4.0,4.0,79,0.00,,FEW,0.00,780.00,VWS V14.01,2013-02-24 18:52:00,
2013-02-24 13:55:00,82.3,75.1,29.93,South,175,4.0,4.0,79,0.00,,FEW,0.00,777.00,VWS V14.01,2013-02-24 18:55:00,
2013-02-24 13:56:00,82.2,75.0,29.93,SSW,200,4.0,5.0,79,0.00,,FEW,0.00,773.00,VWS V14.01,2013-02-24 18:56:00,
2013-02-24 13:57:00,82.2,75.0,29.93,SSW,203,4.0,5.0,79,0.00,,FEW,0.00,773.00,VWS V14.01,2013-02-24 18:57:00,
2013-02-24 14:00:00,82.0,75.2,29.93,SSW,198,5.0,6.0,80,0.00,,FEW,0.00,766.00,VWS V14.01,2013-02-24 19:00:00,
2013-02-24 14:02:00,82.0,75.2,29.93,SE,125,3.0,3.0,80,0.00,,FEW,0.00,765.00,VWS V14.01,2013-02-24 19:02:00,
2013-02-24 14:05:00,82.2,75.4,29.93,SSW,193,3.0,5.0,80,0.00,,FEW,0.00,754.00,VWS V14.01,2013-02-24 19:05:00,
2013-02-24 14:07:00,82.3,75.1,29.93,SSE,160,2.0,5.0,79,0.00,,FEW,0.00,754.00,VWS V14.01,2013-02-24 19:07:00,
2013-02-24 14:10:00,82.3,75.5,29.93,SE,140,2.0,5.0,80,0.00,,FEW,0.00,749.00,VWS V14.01,2013-02-24 19:10:00,
2013-02-24 14:12:00,82.4,75.6,29.93,SE,134,3.0,3.0,80,0.00,,FEW,0.00,742.00,VWS V14.01,2013-02-24 19:12:00,
2013-02-24 14:15:00,82.1,74.9,29.93,South,169,5.0,5.0,79,0.00,,FEW,0.00,740.00,VWS V14.01,2013-02-24 19:15:00,
2013-02-24 14:17:00,82.1,75.3,29.93,SE,141,4.0,5.0,80,0.00,,FEW,0.00,738.00,VWS V14.01,2013-02-24 19:17:00,
2013-02-24 14:20:00,82.1,75.3,29.93,South,181,2.0,5.0,80,0.00,,FEW,0.00,729.00,VWS V14.01,2013-02-24 19:20:00,
2013-02-24 14:22:00,82.1,75.3,29.93,SE,141,3.0,4.0,80,0.00,,FEW,0.00,728.00,VWS V14.01,2013-02-24 19:22:00,
2013-02-24 14:25:00,82.3,75.5,29.93,South,177,4.0,5.0,80,0.00,,FEW,0.00,721.00,VWS V14.01,2013-02-24 19:25:00,
2013-02-24 14:27:00,82.2,75.0,29.93,South,176,4.0,5.0,79,0.00,,FEW,0.00,719.00,VWS V14.01,2013-02-24 19:27:00,
2013-02-24 14:28:00,82.1,74.9,29.93,SSE,164,5.0,6.0,79,0.00,,FEW,0.00,721.00,VWS V14.01,2013-02-24 19:28:00,
2013-02-24 14:30:00,82.0,75.2,29.93,SSE,148,4.0,6.0,80,0.00,,FEW,0.00,714.00,VWS V14.01,2013-02-24 19:30:00,
2013-02-24 14:32:00,82.1,75.3,29.92,South,175,2.0,4.0,80,0.00,,FEW,0.00,707.00,VWS V14.01,2013-02-24 19:32:00,
2013-02-24 14:33:00,82.2,75.4,29.92,South,169,3.0,4.0,80,0.00,,FEW,0.00,703.00,VWS V14.01,2013-02-24 19:33:00,
2013-02-24 14:35:00,82.1,75.3,29.92,South,171,4.0,5.0,80,0.00,,FEW,0.00,703.00,VWS V14.01,2013-02-24 19:35:00,
2013-02-24 14:37:00,82.3,75.5,29.92,SSE,157,3.0,5.0,80,0.00,,FEW,0.00,701.00,VWS V14.01,2013-02-24 19:37:00,
2013-02-24 14:38:00,82.3,75.1,29.92,SSE,159,2.0,5.0,79,0.00,,FEW,0.00,696.00,VWS V14.01,2013-02-24 19:38:00,
2013-02-24 14:40:00,82.4,75.2,29.92,SSW,205,3.0,5.0,79,0.00,,FEW,0.00,693.00,VWS V14.01,2013-02-24 19:40:00,
2013-02-24 14:42:00,82.3,75.1,29.92,SSW,196,3.0,4.0,79,0.00,,FEW,0.00,687.00,VWS V14.01,2013-02-24 19:42:00,
2013-02-24 14:43:00,82.2,75.0,29.92,South,180,3.0,5.0,79,0.00,,FEW,0.00,686.00,VWS V14.01,2013-02-24 19:43:00,
2013-02-24 14:46:00,82.1,75.3,29.92,South,180,3.0,5.0,80,0.00,,FEW,0.00,677.00,VWS V14.01,2013-02-24 19:46:00,
2013-02-24 14:47:00,82.1,75.3,29.92,South,180,3.0,5.0,80,0.00,,FEW,0.00,675.00,VWS V14.01,2013-02-24 19:47:00,
2013-02-24 14:48:00,82.1,75.3,29.92,SSW,206,2.0,5.0,80,0.00,,FEW,0.00,670.00,VWS V14.01,2013-02-24 19:48:00,
2013-02-24 14:51:00,82.4,75.6,29.92,SSW,204,3.0,5.0,80,0.00,,FEW,0.00,666.00,VWS V14.01,2013-02-24 19:51:00,
2013-02-24 14:52:00,82.5,75.3,29.92,SSW,193,2.0,6.0,79,0.00,,FEW,0.00,659.00,VWS V14.01,2013-02-24 19:52:00,
2013-02-24 14:53:00,82.5,75.3,29.92,SSE,162,3.0,6.0,79,0.00,,FEW,0.00,659.00,VWS V14.01,2013-02-24 19:53:00,
2013-02-24 14:56:00,82.4,75.2,29.92,South,186,3.0,6.0,79,0.00,,FEW,0.00,656.00,VWS V14.01,2013-02-24 19:56:00,
2013-02-24 14:57:00,82.3,75.1,29.92,SSW,213,2.0,6.0,79,0.00,,FEW,0.00,650.00,VWS V14.01,2013-02-24 19:57:00,
2013-02-24 14:58:00,82.3,75.1,29.92,South,173,2.0,6.0,79,0.00,,FEW,0.00,650.00,VWS V14.01,2013-02-24 19:58:00,
2013-02-24 15:01:00,82.2,75.4,29.92,South,170,2.0,6.0,80,0.00,,FEW,0.00,647.00,VWS V14.01,2013-02-24 20:01:00,
2013-02-24 15:03:00,82.3,75.5,29.92,South,173,2.0,4.0,80,0.00,,FEW,0.00,633.00,VWS V14.01,2013-02-24 20:03:00,
2013-02-24 15:06:00,82.4,75.6,29.92,SSE,149,2.0,5.0,80,0.00,,FEW,0.00,626.00,VWS V14.01,2013-02-24 20:06:00,
2013-02-24 15:08:00,82.5,75.7,29.92,SSE,165,3.0,5.0,80,0.00,,FEW,0.00,624.00,VWS V14.01,2013-02-24 20:08:00,
2013-02-24 15:09:00,82.5,75.7,29.92,SE,142,2.0,5.0,80,0.00,,FEW,0.00,622.00,VWS V14.01,2013-02-24 20:09:00,
2013-02-24 15:11:00,82.3,75.1,29.92,SE,138,4.0,6.0,79,0.00,,FEW,0.00,610.00,VWS V14.01,2013-02-24 20:11:00,
2013-02-24 15:13:00,82.1,74.9,29.92,SE,138,5.0,5.0,79,0.00,,FEW,0.00,610.00,VWS V14.01,2013-02-24 20:13:00,
2013-02-24 15:14:00,81.9,74.8,29.92,SE,139,2.0,5.0,79,0.00,,FEW,0.00,605.00,VWS V14.01,2013-02-24 20:14:00,
2013-02-24 15:16:00,81.9,75.5,29.91,SE,136,3.0,5.0,81,0.00,,FEW,0.00,592.00,VWS V14.01,2013-02-24 20:16:00,
2013-02-24 15:18:00,81.9,74.4,29.91,ESE,123,3.0,5.0,78,0.00,,FEW,0.00,594.00,VWS V14.01,2013-02-24 20:18:00,
2013-02-24 15:19:00,81.8,74.7,29.91,SE,140,4.0,5.0,79,0.00,,FEW,0.00,592.00,VWS V14.01,2013-02-24 20:19:00,
2013-02-24 15:21:00,81.8,74.7,29.91,SSE,161,3.0,7.0,79,0.00,,FEW,0.00,582.00,VWS V14.01,2013-02-24 20:21:00,
2013-02-24 15:23:00,81.9,74.8,29.91,ESE,120,2.0,6.0,79,0.00,,FEW,0.00,580.00,VWS V14.01,2013-02-24 20:23:00,
2013-02-24 15:24:00,81.9,74.8,29.91,ESE,117,0.0,6.0,79,0.00,,FEW,0.00,578.00,VWS V14.01,2013-02-24 20:24:00,
2013-02-24 15:26:00,82.2,75.0,29.91,SE,143,3.0,7.0,79,0.00,,FEW,0.00,568.00,VWS V14.01,2013-02-24 20:26:00,
2013-02-24 15:28:00,82.2,75.0,29.91,SE,145,2.0,7.0,79,0.00,,FEW,0.00,571.00,VWS V14.01,2013-02-24 20:28:00,
2013-02-24 15:29:00,82.2,75.0,29.91,SE,131,3.0,7.0,79,0.00,,FEW,0.00,568.00,VWS V14.01,2013-02-24 20:29:00,
2013-02-24 15:31:00,82.3,75.1,29.91,ESE,123,2.0,2.0,79,0.00,,FEW,0.00,554.00,VWS V14.01,2013-02-24 20:31:00,
2013-02-24 15:33:00,82.6,75.1,29.91,SE,125,1.0,3.0,78,0.00,,FEW,0.00,548.00,VWS V14.01,2013-02-24 20:33:00,
2013-02-24 15:34:00,82.6,75.1,29.91,SE,128,1.0,3.0,78,0.00,,FEW,0.00,548.00,VWS V14.01,2013-02-24 20:34:00,
2013-02-24 15:37:00,82.6,75.1,29.91,North,360,2.0,5.0,78,0.00,,FEW,0.00,545.00,VWS V14.01,2013-02-24 20:37:00,
2013-02-24 15:38:00,82.2,74.3,29.91,SSE,150,5.0,7.0,77,0.00,,FEW,0.00,534.00,VWS V14.01,2013-02-24 20:38:00,
2013-02-24 15:39:00,82.0,74.1,29.91,SE,140,2.0,7.0,77,0.00,,FEW,0.00,534.00,VWS V14.01,2013-02-24 20:39:00,
2013-02-24 15:42:00,81.9,74.8,29.91,ESE,119,4.0,4.0,79,0.00,,FEW,0.00,533.00,VWS V14.01,2013-02-24 20:42:00,
2013-02-24 15:43:00,82.0,75.2,29.91,SE,125,1.0,5.0,80,0.00,,FEW,0.00,520.00,VWS V14.01,2013-02-24 20:43:00,
2013-02-24 15:44:00,82.0,75.2,29.91,East,96,5.0,5.0,80,0.00,,FEW,0.00,517.00,VWS V14.01,2013-02-24 20:44:00,
2013-02-24 15:45:00,81.9,74.8,29.91,ESE,110,2.0,5.0,79,0.00,,FEW,0.00,515.00,VWS V14.01,2013-02-24 20:45:00,
2013-02-24 15:47:00,81.8,74.7,29.90,ESE,105,1.0,5.0,79,0.00,,FEW,0.00,513.00,VWS V14.01,2013-02-24 20:47:00,
2013-02-24 15:48:00,81.8,74.7,29.90,SE,126,3.0,5.0,79,0.00,,FEW,0.00,508.00,VWS V14.01,2013-02-24 20:48:00,
2013-02-24 15:49:00,81.7,74.6,29.90,SE,126,1.0,5.0,79,0.00,,FEW,0.00,506.00,VWS V14.01,2013-02-24 20:49:00,
2013-02-24 15:50:00,81.7,74.6,29.90,SE,132,2.0,5.0,79,0.00,,FEW,0.00,501.00,VWS V14.01,2013-02-24 20:50:00,
2013-02-24 15:52:00,82.0,74.8,29.90,SE,126,2.0,2.0,79,0.00,,FEW,0.00,492.00,VWS V14.01,2013-02-24 20:52:00,
2013-02-24 15:53:00,82.0,74.5,29.90,SE,136,2.0,4.0,78,0.00,,FEW,0.00,490.00,VWS V14.01,2013-02-24 20:53:00,
2013-02-24 15:54:00,82.0,74.5,29.90,ESE,105,3.0,4.0,78,0.00,,FEW,0.00,485.00,VWS V14.01,2013-02-24 20:54:00,
2013-02-24 15:55:00,81.9,74.4,29.90,SE,143,3.0,4.0,78,0.00,,FEW,0.00,482.00,VWS V14.01,2013-02-24 20:55:00,
2013-02-24 15:57:00,81.9,74.8,29.90,ESE,111,1.0,5.0,79,0.00,,FEW,0.00,475.00,VWS V14.01,2013-02-24 20:57:00,
2013-02-24 15:58:00,82.1,74.9,29.90,East,96,1.0,5.0,79,0.00,,FEW,0.00,475.00,VWS V14.01,2013-02-24 20:58:00,
2013-02-24 15:59:00,82.2,74.7,29.90,ENE,78,2.0,5.0,78,0.00,,FEW,0.00,471.00,VWS V14.01,2013-02-24 20:59:00,
2013-02-24 16:00:00,82.3,74.8,29.90,East,96,1.0,5.0,78,0.00,,FEW,0.00,471.00,VWS V14.01,2013-02-24 21:00:00,
2013-02-24 16:02:00,82.1,74.2,29.90,SSE,152,3.0,4.0,77,0.00,,FEW,0.00,464.00,VWS V14.01,2013-02-24 21:02:00,
2013-02-24 16:03:00,81.9,74.4,29.90,SE,132,1.0,4.0,78,0.00,,FEW,0.00,462.00,VWS V14.01,2013-02-24 21:03:00,
2013-02-24 16:04:00,82.0,74.8,29.90,SE,129,1.0,4.0,79,0.00,,FEW,0.00,454.00,VWS V14.01,2013-02-24 21:04:00,
2013-02-24 16:05:00,82.1,74.9,29.90,ESE,119,2.0,5.0,79,0.00,,FEW,0.00,452.00,VWS V14.01,2013-02-24 21:05:00,
2013-02-24 16:07:00,81.9,74.0,29.90,SSE,147,5.0,5.0,77,0.00,,FEW,0.00,445.00,VWS V14.01,2013-02-24 21:07:00,
2013-02-24 16:08:00,81.8,73.5,29.90,SE,146,2.0,5.0,76,0.00,,FEW,0.00,441.00,VWS V14.01,2013-02-24 21:08:00,
2013-02-24 16:10:00,81.9,74.0,29.90,SE,126,0.0,5.0,77,0.00,,FEW,0.00,438.00,VWS V14.01,2013-02-24 21:10:00,
2013-02-24 16:12:00,82.0,74.1,29.90,ESE,116,2.0,3.0,77,0.00,,FEW,0.00,431.00,VWS V14.01,2013-02-24 21:12:00,
2013-02-24 16:14:00,82.0,73.7,29.90,SE,124,2.0,3.0,76,0.00,,FEW,0.00,424.00,VWS V14.01,2013-02-24 21:14:00,
2013-02-24 16:15:00,82.0,74.1,29.90,ESE,117,1.0,3.0,77,0.00,,FEW,0.00,422.00,VWS V14.01,2013-02-24 21:15:00,
2013-02-24 16:18:00,82.1,74.2,29.90,East,98,2.0,4.0,77,0.00,,FEW,0.00,411.00,VWS V14.01,2013-02-24 21:18:00,
2013-02-24 16:19:00,82.1,74.2,29.90,East,98,1.0,4.0,77,0.00,,FEW,0.00,404.00,VWS V14.01,2013-02-24 21:19:00,
2013-02-24 16:20:00,82.3,74.4,29.90,East,97,0.0,4.0,77,0.00,,FEW,0.00,404.00,VWS V14.01,2013-02-24 21:20:00,
2013-02-24 16:23:00,82.4,74.1,29.90,ESE,115,2.0,3.0,76,0.00,,FEW,0.00,388.00,VWS V14.01,2013-02-24 21:23:00,
2013-02-24 16:24:00,82.4,74.1,29.90,SE,126,2.0,3.0,76,0.00,,FEW,0.00,388.00,VWS V14.01,2013-02-24 21:24:00,
2013-02-24 16:25:00,82.4,74.1,29.90,SE,129,2.0,3.0,76,0.00,,FEW,0.00,387.00,VWS V14.01,2013-02-24 21:25:00,
2013-02-24 16:28:00,82.0,73.7,29.90,SSE,150,3.0,3.0,76,0.00,,FEW,0.00,371.00,VWS V14.01,2013-02-24 21:28:00,
2013-02-24 16:29:00,81.9,73.6,29.90,SE,141,2.0,5.0,76,0.00,,FEW,0.00,366.00,VWS V14.01,2013-02-24 21:29:00,
2013-02-24 16:30:00,81.8,73.9,29.90,SE,141,1.0,5.0,77,0.00,,FEW,0.00,360.00,VWS V14.01,2013-02-24 21:30:00,
2013-02-24 16:31:00,81.9,74.4,29.91,SSE,151,2.0,5.0,78,0.00,,FEW,0.00,360.00,VWS V14.01,2013-02-24 21:31:00,
2013-02-24 16:33:00,81.7,73.8,29.91,SSE,158,1.0,4.0,77,0.00,,FEW,0.00,350.00,VWS V14.01,2013-02-24 21:33:00,
2013-02-24 16:34:00,81.7,73.8,29.91,SE,144,3.0,4.0,77,0.00,,FEW,0.00,350.00,VWS V14.01,2013-02-24 21:34:00,
2013-02-24 16:35:00,81.5,74.0,29.91,ESE,116,2.0,4.0,78,0.00,,FEW,0.00,346.00,VWS V14.01,2013-02-24 21:35:00,
2013-02-24 16:36:00,81.4,73.9,29.91,SE,133,3.0,4.0,78,0.00,,FEW,0.00,343.00,VWS V14.01,2013-02-24 21:36:00,
2013-02-24 16:39:00,81.4,73.9,29.91,SE,124,1.0,4.0,78,0.00,,FEW,0.00,329.00,VWS V14.01,2013-02-24 21:39:00,
2013-02-24 16:40:00,81.6,74.1,29.91,ESE,116,2.0,4.0,78,0.00,,FEW,0.00,325.00,VWS V14.01,2013-02-24 21:40:00,
2013-02-24 16:41:00,81.6,73.7,29.91,SE,135,2.0,4.0,77,0.00,,FEW,0.00,323.00,VWS V14.01,2013-02-24 21:41:00,
2013-02-24 16:44:00,81.4,73.5,29.91,SE,126,2.0,4.0,77,0.00,,FEW,0.00,316.00,VWS V14.01,2013-02-24 21:44:00,
2013-02-24 16:45:00,81.5,74.0,29.91,SE,125,1.0,4.0,78,0.00,,FEW,0.00,309.00,VWS V14.01,2013-02-24 21:45:00,
2013-02-24 16:46:00,81.6,74.5,29.90,SE,128,2.0,4.0,79,0.00,,FEW,0.00,306.00,VWS V14.01,2013-02-24 21:46:00,
2013-02-24 16:49:00,81.7,74.2,29.90,SE,130,2.0,4.0,78,0.00,,FEW,0.00,292.00,VWS V14.01,2013-02-24 21:49:00,
2013-02-24 16:50:00,81.7,74.6,29.90,SE,129,1.0,4.0,79,0.00,,FEW,0.00,288.00,VWS V14.01,2013-02-24 21:50:00,
2013-02-24 16:51:00,81.7,74.6,29.90,SE,136,3.0,4.0,79,0.00,,FEW,0.00,287.00,VWS V14.01,2013-02-24 21:51:00,
2013-02-24 16:54:00,81.3,73.8,29.90,SE,142,3.0,4.0,78,0.00,,FEW,0.00,276.00,VWS V14.01,2013-02-24 21:54:00,
2013-02-24 16:56:00,81.2,74.1,29.90,ESE,119,1.0,4.0,79,0.00,,FEW,0.00,271.00,VWS V14.01,2013-02-24 21:56:00,
2013-02-24 16:59:00,81.4,74.3,29.90,ESE,123,2.0,4.0,79,0.00,,FEW,0.00,260.00,VWS V14.01,2013-02-24 21:59:00,
2013-02-24 17:01:00,81.5,74.7,29.90,East,98,3.0,4.0,80,0.00,,FEW,0.00,251.00,VWS V14.01,2013-02-24 22:01:00,
2013-02-24 17:04:00,81.6,74.5,29.90,ESE,115,3.0,3.0,79,0.00,,FEW,0.00,241.00,VWS V14.01,2013-02-24 22:04:00,
2013-02-24 17:06:00,81.5,74.7,29.90,ESE,110,1.0,3.0,80,0.00,,FEW,0.00,236.00,VWS V14.01,2013-02-24 22:06:00,
2013-02-24 17:09:00,81.4,74.6,29.90,ESE,120,0.0,3.0,80,0.00,,FEW,0.00,218.00,VWS V14.01,2013-02-24 22:09:00,
2013-02-24 17:11:00,81.3,74.2,29.90,SE,126,2.0,5.0,79,0.00,,FEW,0.00,214.00,VWS V14.01,2013-02-24 22:11:00,
2013-02-24 17:14:00,80.9,73.8,29.90,ESE,111,2.0,4.0,79,0.00,,FEW,0.00,204.00,VWS V14.01,2013-02-24 22:14:00,
2013-02-24 17:16:00,80.9,74.2,29.90,ESE,111,2.0,4.0,80,0.00,,FEW,0.00,197.00,VWS V14.01,2013-02-24 22:16:00,
2013-02-24 17:19:00,80.9,74.5,29.90,SE,146,3.0,4.0,81,0.00,,FEW,0.00,185.00,VWS V14.01,2013-02-24 22:19:00,
2013-02-24 17:20:00,81.0,74.6,29.90,SE,144,1.0,4.0,81,0.00,,FEW,0.00,185.00,VWS V14.01,2013-02-24 22:20:00,
2013-02-24 17:21:00,80.9,74.5,29.90,SE,130,0.0,4.0,81,0.00,,FEW,0.00,178.00,VWS V14.01,2013-02-24 22:21:00,
2013-02-24 17:24:00,81.0,74.6,29.90,ESE,117,2.0,2.0,81,0.00,,FEW,0.00,163.00,VWS V14.01,2013-02-24 22:24:00,
2013-02-24 17:25:00,81.0,74.6,29.90,ESE,115,2.0,2.0,81,0.00,,FEW,0.00,163.00,VWS V14.01,2013-02-24 22:25:00,
2013-02-24 17:26:00,81.0,74.6,29.90,SE,124,2.0,2.0,81,0.00,,FEW,0.00,155.00,VWS V14.01,2013-02-24 22:26:00,
2013-02-24 17:29:00,80.8,74.1,29.90,SE,130,0.0,3.0,80,0.00,,FEW,0.00,148.00,VWS V14.01,2013-02-24 22:29:00,
2013-02-24 17:30:00,80.7,74.0,29.90,SE,130,1.0,3.0,80,0.00,,FEW,0.00,148.00,VWS V14.01,2013-02-24 22:30:00,
2013-02-24 17:31:00,80.7,74.3,29.90,SE,132,2.0,3.0,81,0.00,,FEW,0.00,141.00,VWS V14.01,2013-02-24 22:31:00,
2013-02-24 17:34:00,80.5,74.1,29.90,ESE,111,0.0,3.0,81,0.00,,FEW,0.00,130.00,VWS V14.01,2013-02-24 22:34:00,
2013-02-24 17:35:00,80.5,74.1,29.90,ESE,111,0.0,3.0,81,0.00,,FEW,0.00,130.00,VWS V14.01,2013-02-24 22:35:00,
2013-02-24 17:37:00,80.5,74.1,29.90,ESE,107,1.0,3.0,81,0.00,,FEW,0.00,123.00,VWS V14.01,2013-02-24 22:37:00,
2013-02-24 17:39:00,80.4,74.4,29.90,ENE,61,1.0,3.0,82,0.00,,FEW,0.00,113.00,VWS V14.01,2013-02-24 22:39:00,
2013-02-24 17:40:00,80.4,74.4,29.90,ENE,61,1.0,3.0,82,0.00,,FEW,0.00,111.00,VWS V14.01,2013-02-24 22:40:00,
2013-02-24 17:42:00,80.4,74.4,29.90,East,79,1.0,1.0,82,0.00,,FEW,0.00,102.00,VWS V14.01,2013-02-24 22:42:00,
2013-02-24 17:45:00,80.4,74.4,29.90,East,82,0.0,2.0,82,0.00,,FEW,0.00,91.00,VWS V14.01,2013-02-24 22:45:00,
2013-02-24 17:47:00,80.3,74.3,29.91,ESE,111,0.0,2.0,82,0.00,,FEW,0.00,84.00,VWS V14.01,2013-02-24 22:47:00,
2013-02-24 17:50:00,80.3,74.3,29.91,East,84,1.0,3.0,82,0.00,,FEW,0.00,76.00,VWS V14.01,2013-02-24 22:50:00,
2013-02-24 17:52:00,80.1,74.1,29.91,East,84,1.0,2.0,82,0.00,,FEW,0.00,69.00,VWS V14.01,2013-02-24 22:52:00,
2013-02-24 17:55:00,80.0,74.0,29.91,ENE,78,0.0,3.0,82,0.00,,FEW,0.00,58.00,VWS V14.01,2013-02-24 22:55:00,
2013-02-24 17:57:00,79.9,73.9,29.91,East,79,0.0,3.0,82,0.00,,FEW,0.00,53.00,VWS V14.01,2013-02-24 22:57:00,
2013-02-24 18:00:00,79.8,73.8,29.91,East,93,0.0,3.0,82,0.00,,FEW,0.00,46.00,VWS V14.01,2013-02-24 23:00:00,
2013-02-24 18:02:00,79.8,73.8,29.91,East,93,0.0,0.0,82,0.00,,FEW,0.00,26.00,VWS V14.01,2013-02-24 23:02:00,
2013-02-24 18:05:00,79.9,74.3,29.91,ESE,102,0.0,2.0,83,0.00,,FEW,0.00,21.00,VWS V14.01,2013-02-24 23:05:00,
2013-02-24 18:07:00,79.9,74.3,29.91,ESE,104,0.0,2.0,83,0.00,,FEW,0.00,19.00,VWS V14.01,2013-02-24 23:07:00,
2013-02-24 18:08:00,80.0,74.4,29.91,ESE,104,0.0,2.0,83,0.00,,FEW,0.00,19.00,VWS V14.01,2013-02-24 23:08:00,
2013-02-24 18:10:00,80.0,74.0,29.91,ESE,104,0.0,2.0,82,0.00,,FEW,0.00,18.00,VWS V14.01,2013-02-24 23:10:00,
2013-02-24 18:13:00,80.0,74.0,29.91,East,94,1.0,1.0,82,0.00,,FEW,0.00,14.00,VWS V14.01,2013-02-24 23:13:00,
2013-02-24 18:15:00,79.9,73.9,29.91,East,94,1.0,1.0,82,0.00,,FEW,0.00,12.00,VWS V14.01,2013-02-24 23:15:00,
2013-02-24 18:18:00,79.8,73.8,29.91,East,95,0.0,2.0,82,0.00,,FEW,0.00,9.00,VWS V14.01,2013-02-24 23:18:00,
2013-02-24 18:20:00,79.8,73.8,29.91,East,95,0.0,2.0,82,0.00,,FEW,0.00,7.00,VWS V14.01,2013-02-24 23:20:00,
2013-02-24 18:23:00,79.8,74.2,29.91,East,95,0.0,0.0,83,0.00,,FEW,0.00,5.00,VWS V14.01,2013-02-24 23:23:00,
2013-02-24 18:25:00,79.7,74.1,29.91,East,95,0.0,2.0,83,0.00,,FEW,0.00,0.00,VWS V14.01,2013-02-24 23:25:00,
2013-02-24 18:28:00,79.6,74.0,29.91,East,95,0.0,2.0,83,0.00,,FEW,0.00,0.00,VWS V14.01,2013-02-24 23:28:00,
2013-02-24 18:30:00,79.5,73.9,29.91,East,95,0.0,2.0,83,0.00,,FEW,0.00,0.00,VWS V14.01,2013-02-24 23:30:00,
2013-02-24 18:31:00,79.5,73.9,29.91,East,95,0.0,2.0,83,0.00,,FEW,0.00,0.00,VWS V14.01,2013-02-24 23:31:00,
2013-02-24 18:33:00,79.4,73.8,29.91,East,95,0.0,0.0,83,0.00,,FEW,0.00,0.00,VWS V14.01,2013-02-24 23:33:00,
2013-02-24 18:35:00,79.3,73.7,29.91,East,95,0.0,1.0,83,0.00,,FEW,0.00,0.00,VWS V14.01,2013-02-24 23:35:00,
2013-02-24 18:36:00,79.3,73.7,29.91,East,95,0.0,1.0,83,0.00,,FEW,0.00,0.00,VWS V14.01,2013-02-24 23:36:00,
2013-02-24 18:38:00,79.2,73.6,29.91,East,95,0.0,1.0,83,0.00,,FEW,0.00,0.00,VWS V14.01,2013-02-24 23:38:00,
2013-02-24 18:40:00,79.1,73.5,29.91,East,95,0.0,1.0,83,0.00,,FEW,0.00,0.00,VWS V14.01,2013-02-24 23:40:00,
2013-02-24 18:41:00,79.1,73.8,29.91,East,95,0.0,1.0,84,0.00,,FEW,0.00,0.00,VWS V14.01,2013-02-24 23:41:00,
2013-02-24 18:43:00,79.0,73.8,29.91,East,95,0.0,1.0,84,0.00,,FEW,0.00,0.00,VWS V14.01,2013-02-24 23:43:00,
2013-02-24 18:44:00,79.0,73.8,29.91,East,95,0.0,1.0,84,0.00,,FEW,0.00,0.00,VWS V14.01,2013-02-24 23:44:00,
2013-02-24 18:45:00,78.9,73.7,29.91,East,95,0.0,2.0,84,0.00,,FEW,0.00,0.00,VWS V14.01,2013-02-24 23:45:00,
2013-02-24 18:46:00,78.9,73.7,29.91,East,95,0.0,2.0,84,0.00,,FEW,0.00,0.00,VWS V14.01,2013-02-24 23:46:00,
2013-02-24 18:48:00,78.8,73.6,29.91,East,95,0.0,2.0,84,0.00,,FEW,0.00,0.00,VWS V14.01,2013-02-24 23:48:00,
2013-02-24 18:49:00,78.7,73.5,29.91,East,95,0.0,2.0,84,0.00,,FEW,0.00,0.00,VWS V14.01,2013-02-24 23:49:00,
2013-02-24 18:50:00,78.7,73.5,29.91,East,95,1.0,2.0,84,0.00,,FEW,0.00,0.00,VWS V14.01,2013-02-24 23:50:00,
2013-02-24 18:51:00,78.7,73.5,29.91,East,95,0.0,2.0,84,0.00,,FEW,0.00,0.00,VWS V14.01,2013-02-24 23:51:00,
2013-02-24 18:53:00,78.5,73.3,29.91,East,95,0.0,1.0,84,0.00,,FEW,0.00,0.00,VWS V14.01,2013-02-24 23:53:00,
2013-02-24 18:54:00,78.5,73.3,29.91,East,95,0.0,1.0,84,0.00,,FEW,0.00,0.00,VWS V14.01,2013-02-24 23:54:00,
2013-02-24 18:55:00,78.5,73.6,29.91,East,95,0.0,1.0,85,0.00,,FEW,0.00,0.00,VWS V14.01,2013-02-24 23:55:00,
2013-02-24 18:56:00,78.4,73.5,29.91,East,95,1.0,1.0,85,0.00,,FEW,0.00,0.00,VWS V14.01,2013-02-24 23:56:00,
2013-02-24 18:58:00,78.4,73.5,29.91,East,95,1.0,1.0,85,0.00,,FEW,0.00,0.00,VWS V14.01,2013-02-24 23:58:00,
2013-02-24 18:59:00,78.3,73.4,29.91,East,95,0.0,1.0,85,0.00,,FEW,0.00,0.00,VWS V14.01,2013-02-24 23:59:00,
2013-02-24 19:00:00,78.3,73.4,29.91,East,95,0.0,1.0,85,0.00,,FEW,0.00,0.00,VWS V14.01,2013-02-25 00:00:00,
2013-02-24 19:01:00,78.2,73.3,29.91,East,95,0.0,1.0,85,0.00,,FEW,0.00,0.00,VWS V14.01,2013-02-25 00:01:00,
2013-02-24 19:04:00,78.2,73.3,29.91,East,94,0.0,2.0,85,0.00,,FEW,0.00,0.00,VWS V14.01,2013-02-25 00:04:00,
2013-02-24 19:06:00,78.1,73.2,29.91,East,94,0.0,2.0,85,0.00,,FEW,0.00,0.00,VWS V14.01,2013-02-25 00:06:00,
2013-02-24 19:07:00,78.1,73.2,29.91,East,94,0.0,2.0,85,0.00,,FEW,0.00,0.00,VWS V14.01,2013-02-25 00:07:00,
2013-02-24 19:09:00,77.9,73.4,29.91,East,93,1.0,2.0,86,0.00,,FEW,0.00,0.00,VWS V14.01,2013-02-25 00:09:00,
2013-02-24 19:11:00,77.9,73.4,29.91,East,94,0.0,2.0,86,0.00,,FEW,0.00,0.00,VWS V14.01,2013-02-25 00:11:00,
2013-02-24 19:12:00,77.8,73.3,29.91,East,93,0.0,0.0,86,0.00,,FEW,0.00,0.00,VWS V14.01,2013-02-25 00:12:00,
2013-02-24 19:14:00,77.8,73.3,29.91,East,93,0.0,1.0,86,0.00,,FEW,0.00,0.00,VWS V14.01,2013-02-25 00:14:00,
2013-02-24 19:16:00,77.7,73.2,29.91,East,93,0.0,1.0,86,0.00,,FEW,0.00,0.00,VWS V14.01,2013-02-25 00:16:00,
2013-02-24 19:17:00,77.6,73.1,29.91,East,93,0.0,1.0,86,0.00,,FEW,0.00,0.00,VWS V14.01,2013-02-25 00:17:00,
2013-02-24 19:19:00,77.6,73.1,29.91,East,93,0.0,1.0,86,0.00,,FEW,0.00,0.00,VWS V14.01,2013-02-25 00:19:00,
2013-02-24 19:21:00,77.5,73.0,29.91,East,92,1.0,2.0,86,0.00,,FEW,0.00,0.00,VWS V14.01,2013-02-25 00:21:00,
2013-02-24 19:22:00,77.5,73.0,29.91,East,92,0.0,0.0,86,0.00,,FEW,0.00,0.00,VWS V14.01,2013-02-25 00:22:00,
2013-02-24 19:24:00,77.5,73.3,29.91,East,92,0.0,1.0,87,0.00,,FEW,0.00,0.00,VWS V14.01,2013-02-25 00:24:00,
2013-02-24 19:26:00,77.4,73.2,29.91,East,92,0.0,1.0,87,0.00,,FEW,0.00,0.00,VWS V14.01,2013-02-25 00:26:00,
2013-02-24 19:27:00,77.4,73.2,29.91,East,92,0.0,1.0,87,0.00,,FEW,0.00,0.00,VWS V14.01,2013-02-25 00:27:00,
2013-02-24 19:29:00,77.4,73.2,29.91,East,92,0.0,1.0,87,0.00,,FEW,0.00,0.00,VWS V14.01,2013-02-25 00:29:00,
2013-02-24 19:31:00,77.4,73.2,29.91,East,92,0.0,1.0,87,0.00,,FEW,0.00,0.00,VWS V14.01,2013-02-25 00:31:00,
2013-02-24 19:32:00,77.3,73.1,29.91,East,92,0.0,1.0,87,0.00,,FEW,0.00,0.00,VWS V14.01,2013-02-25 00:32:00,
2013-02-24 19:34:00,77.3,73.1,29.91,East,92,0.0,2.0,87,0.00,,FEW,0.00,0.00,VWS V14.01,2013-02-25 00:34:00,
2013-02-24 19:36:00,77.3,73.1,29.91,East,92,0.0,2.0,87,0.00,,FEW,0.00,0.00,VWS V14.01,2013-02-25 00:36:00,
2013-02-24 19:38:00,77.2,73.0,29.91,East,92,0.0,2.0,87,0.00,,FEW,0.00,0.00,VWS V14.01,2013-02-25 00:38:00,
2013-02-24 19:39:00,77.2,73.4,29.91,East,92,0.0,2.0,88,0.00,,FEW,0.00,0.00,VWS V14.01,2013-02-25 00:39:00,
2013-02-24 19:40:00,77.2,73.4,29.91,East,92,0.0,2.0,88,0.00,,FEW,0.00,0.00,VWS V14.01,2013-02-25 00:40:00,
2013-02-24 19:41:00,77.2,73.4,29.91,East,92,0.0,2.0,88,0.00,,FEW,0.00,0.00,VWS V14.01,2013-02-25 00:41:00,
2013-02-24 19:43:00,77.1,73.3,29.91,East,92,0.0,0.0,88,0.00,,FEW,0.00,0.00,VWS V14.01,2013-02-25 00:43:00,
2013-02-24 19:45:00,77.1,73.3,29.91,East,92,1.0,1.0,88,0.00,,FEW,0.00,0.00,VWS V14.01,2013-02-25 00:45:00,
2013-02-24 19:47:00,77.0,73.2,29.92,East,92,0.0,1.0,88,0.00,,FEW,0.00,0.00,VWS V14.01,2013-02-25 00:47:00,
2013-02-24 19:48:00,77.0,73.2,29.92,East,92,0.0,1.0,88,0.00,,FEW,0.00,0.00,VWS V14.01,2013-02-25 00:48:00,
2013-02-24 19:50:00,77.0,73.2,29.92,East,92,0.0,1.0,88,0.00,,FEW,0.00,0.00,VWS V14.01,2013-02-25 00:50:00,
2013-02-24 19:52:00,76.9,73.1,29.92,East,92,0.0,1.0,88,0.00,,FEW,0.00,0.00,VWS V14.01,2013-02-25 00:52:00,
2013-02-24 19:53:00,76.9,73.1,29.92,East,92,0.0,1.0,88,0.00,,FEW,0.00,0.00,VWS V14.01,2013-02-25 00:53:00,
2013-02-24 19:55:00,76.9,73.1,29.92,East,92,0.0,1.0,88,0.00,,FEW,0.00,0.00,VWS V14.01,2013-02-25 00:55:00,
2013-02-24 19:57:00,76.8,73.0,29.92,East,92,0.0,1.0,88,0.00,,FEW,0.00,0.00,VWS V14.01,2013-02-25 00:57:00,
2013-02-24 19:58:00,76.8,73.0,29.92,East,92,0.0,1.0,88,0.00,,FEW,0.00,0.00,VWS V14.01,2013-02-25 00:58:00,
2013-02-24 20:00:00,76.8,73.0,29.92,East,92,1.0,1.0,88,0.00,,FEW,0.00,0.00,VWS V14.01,2013-02-25 01:00:00,
2013-02-24 20:02:00,76.8,73.0,29.92,East,92,0.0,1.0,88,0.00,,FEW,0.00,0.00,VWS V14.01,2013-02-25 01:02:00,
2013-02-24 20:04:00,76.7,73.2,29.92,East,92,0.0,1.0,89,0.00,,FEW,0.00,0.00,VWS V14.01,2013-02-25 01:04:00,
2013-02-24 20:05:00,76.7,73.2,29.92,East,92,0.0,1.0,89,0.00,,FEW,0.00,0.00,VWS V14.01,2013-02-25 01:05:00,
2013-02-24 20:06:00,76.7,73.2,29.92,East,92,0.0,1.0,89,0.00,,FEW,0.00,0.00,VWS V14.01,2013-02-25 01:06:00,
2013-02-24 20:07:00,76.7,73.2,29.92,East,92,0.0,1.0,89,0.00,,FEW,0.00,0.00,VWS V14.01,2013-02-25 01:07:00,
2013-02-24 20:09:00,76.7,73.2,29.92,East,92,0.0,1.0,89,0.00,,FEW,0.00,0.00,VWS V14.01,2013-02-25 01:09:00,
2013-02-24 20:10:00,76.7,73.2,29.92,East,92,0.0,1.0,89,0.00,,FEW,0.00,0.00,VWS V14.01,2013-02-25 01:10:00,
2013-02-24 20:11:00,76.7,73.2,29.92,East,92,0.0,1.0,89,0.00,,FEW,0.00,0.00,VWS V14.01,2013-02-25 01:11:00,
2013-02-24 20:12:00,76.7,73.2,29.92,East,92,0.0,0.0,89,0.00,,FEW,0.00,0.00,VWS V14.01,2013-02-25 01:12:00,
2013-02-24 20:15:00,76.6,73.1,29.92,East,92,0.0,0.0,89,0.00,,FEW,0.00,0.00,VWS V14.01,2013-02-25 01:15:00,
2013-02-24 20:16:00,76.6,73.1,29.92,East,92,0.0,0.0,89,0.00,,FEW,0.00,0.00,VWS V14.01,2013-02-25 01:16:00,
2013-02-24 20:17:00,76.6,73.1,29.92,East,92,0.0,0.0,89,0.00,,FEW,0.00,0.00,VWS V14.01,2013-02-25 01:17:00,
2013-02-24 20:20:00,76.5,73.0,29.92,East,92,1.0,1.0,89,0.00,,FEW,0.00,0.00,VWS V14.01,2013-02-25 01:20:00,
2013-02-24 20:21:00,76.5,73.0,29.92,East,92,0.0,1.0,89,0.00,,FEW,0.00,0.00,VWS V14.01,2013-02-25 01:21:00,
2013-02-24 20:22:00,76.5,73.0,29.92,East,92,1.0,2.0,89,0.00,,FEW,0.00,0.00,VWS V14.01,2013-02-25 01:22:00,
2013-02-24 20:25:00,76.5,73.3,29.92,East,92,0.0,2.0,90,0.00,,FEW,0.00,0.00,VWS V14.01,2013-02-25 01:25:00,
2013-02-24 20:26:00,76.5,73.3,29.92,East,92,0.0,2.0,90,0.00,,FEW,0.00,0.00,VWS V14.01,2013-02-25 01:26:00,
2013-02-24 20:27:00,76.5,73.3,29.92,East,92,1.0,2.0,90,0.00,,FEW,0.00,0.00,VWS V14.01,2013-02-25 01:27:00,
2013-02-24 20:30:00,76.5,73.3,29.92,East,92,0.0,2.0,90,0.00,,FEW,0.00,0.00,VWS V14.01,2013-02-25 01:30:00,
2013-02-24 20:31:00,76.5,73.3,29.93,East,92,0.0,2.0,90,0.00,,FEW,0.00,0.00,VWS V14.01,2013-02-25 01:31:00,
2013-02-24 20:32:00,76.5,73.3,29.93,East,92,0.0,1.0,90,0.00,,FEW,0.00,0.00,VWS V14.01,2013-02-25 01:32:00,
2013-02-24 20:35:00,76.4,73.2,29.93,East,92,0.0,1.0,90,0.00,,FEW,0.00,0.00,VWS V14.01,2013-02-25 01:35:00,
2013-02-24 20:36:00,76.4,73.2,29.93,East,92,0.0,1.0,90,0.00,,FEW,0.00,0.00,VWS V14.01,2013-02-25 01:36:00,
2013-02-24 20:37:00,76.4,73.2,29.93,East,92,0.0,1.0,90,0.00,,FEW,0.00,0.00,VWS V14.01,2013-02-25 01:37:00,
2013-02-24 20:40:00,76.4,73.2,29.93,East,92,0.0,1.0,90,0.00,,FEW,0.00,0.00,VWS V14.01,2013-02-25 01:40:00,
2013-02-24 20:41:00,76.4,73.2,29.93,East,92,1.0,1.0,90,0.00,,FEW,0.00,0.00,VWS V14.01,2013-02-25 01:41:00,
2013-02-24 20:42:00,76.4,73.2,29.93,East,92,0.0,0.0,90,0.00,,FEW,0.00,0.00,VWS V14.01,2013-02-25 01:42:00,
2013-02-24 20:45:00,76.3,73.2,29.93,East,92,0.0,1.0,90,0.00,,FEW,0.00,0.00,VWS V14.01,2013-02-25 01:45:00,
2013-02-24 20:46:00,76.3,73.2,29.93,East,92,0.0,1.0,90,0.00,,FEW,0.00,0.00,VWS V14.01,2013-02-25 01:46:00,
2013-02-24 20:47:00,76.3,73.2,29.93,East,92,0.0,1.0,90,0.00,,FEW,0.00,0.00,VWS V14.01,2013-02-25 01:47:00,
2013-02-24 20:50:00,76.3,73.5,29.93,East,92,0.0,1.0,91,0.00,,FEW,0.00,0.00,VWS V14.01,2013-02-25 01:50:00,
2013-02-24 20:51:00,76.4,73.6,29.93,East,92,0.0,1.0,91,0.00,,FEW,0.00,0.00,VWS V14.01,2013-02-25 01:51:00,
2013-02-24 20:52:00,76.4,73.6,29.93,East,92,0.0,0.0,91,0.00,,FEW,0.00,0.00,VWS V14.01,2013-02-25 01:52:00,
2013-02-24 20:56:00,76.3,73.5,29.93,East,92,0.0,0.0,91,0.00,,FEW,0.00,0.00,VWS V14.01,2013-02-25 01:56:00,
2013-02-24 20:57:00,76.2,73.4,29.93,East,92,0.0,0.0,91,0.00,,FEW,0.00,0.00,VWS V14.01,2013-02-25 01:57:00,
2013-02-24 21:01:00,76.2,73.4,29.94,East,92,1.0,1.0,91,0.00,,FEW,0.00,0.00,VWS V14.01,2013-02-25 02:01:00,
2013-02-24 21:02:00,76.2,73.4,29.94,East,92,0.0,1.0,91,0.00,,FEW,0.00,0.00,VWS V14.01,2013-02-25 02:02:00,
2013-02-24 21:06:00,76.2,73.4,29.94,East,92,0.0,1.0,91,0.00,,FEW,0.00,0.00,VWS V14.01,2013-02-25 02:06:00,
2013-02-24 21:07:00,76.2,73.4,29.94,East,92,0.0,1.0,91,0.00,,FEW,0.00,0.00,VWS V14.01,2013-02-25 02:07:00,
2013-02-24 21:11:00,76.2,73.4,29.94,East,92,0.0,1.0,91,0.00,,FEW,0.00,0.00,VWS V14.01,2013-02-25 02:11:00,
2013-02-24 21:13:00,76.2,73.4,29.94,East,92,0.0,0.0,91,0.00,,FEW,0.00,0.00,VWS V14.01,2013-02-25 02:13:00,
2013-02-24 21:16:00,76.2,73.4,29.94,East,92,0.0,0.0,91,0.00,,FEW,0.00,0.00,VWS V14.01,2013-02-25 02:16:00,
2013-02-24 21:17:00,76.2,73.4,29.94,East,92,0.0,0.0,91,0.00,,FEW,0.00,0.00,VWS V14.01,2013-02-25 02:17:00,
2013-02-24 21:18:00,76.2,73.4,29.94,East,92,0.0,0.0,91,0.00,,FEW,0.00,0.00,VWS V14.01,2013-02-25 02:18:00,
2013-02-24 21:21:00,76.1,73.3,29.94,East,92,0.0,0.0,91,0.00,,FEW,0.00,0.00,VWS V14.01,2013-02-25 02:21:00,
2013-02-24 21:22:00,76.1,73.3,29.94,East,92,0.0,0.0,91,0.00,,FEW,0.00,0.00,VWS V14.01,2013-02-25 02:22:00,
2013-02-24 21:23:00,76.1,73.3,29.94,East,92,0.0,0.0,91,0.00,,FEW,0.00,0.00,VWS V14.01,2013-02-25 02:23:00,
2013-02-24 21:26:00,76.0,73.2,29.94,East,92,0.0,0.0,91,0.00,,FEW,0.00,0.00,VWS V14.01,2013-02-25 02:26:00,
2013-02-24 21:27:00,76.0,73.2,29.94,East,92,0.0,0.0,91,0.00,,FEW,0.00,0.00,VWS V14.01,2013-02-25 02:27:00,
2013-02-24 21:28:00,76.0,73.2,29.94,East,92,0.0,0.0,91,0.00,,FEW,0.00,0.00,VWS V14.01,2013-02-25 02:28:00,
2013-02-24 21:31:00,76.0,73.5,29.94,East,92,0.0,2.0,92,0.00,,FEW,0.00,0.00,VWS V14.01,2013-02-25 02:31:00,
2013-02-24 21:32:00,76.0,73.5,29.94,East,92,1.0,1.0,92,0.00,,FEW,0.00,0.00,VWS V14.01,2013-02-25 02:32:00,
2013-02-24 21:33:00,76.0,73.5,29.94,East,92,3.0,3.0,92,0.00,,FEW,0.00,0.00,VWS V14.01,2013-02-25 02:33:00,
2013-02-24 21:36:00,76.0,73.5,29.94,East,92,1.0,3.0,92,0.00,,FEW,0.00,0.00,VWS V14.01,2013-02-25 02:36:00,
2013-02-24 21:37:00,76.1,73.6,29.94,East,96,2.0,3.0,92,0.00,,FEW,0.00,0.00,VWS V14.01,2013-02-25 02:37:00,
2013-02-24 21:38:00,76.1,73.6,29.94,East,98,1.0,3.0,92,0.00,,FEW,0.00,0.00,VWS V14.01,2013-02-25 02:38:00,
2013-02-24 21:41:00,76.1,73.6,29.94,East,99,0.0,3.0,92,0.00,,FEW,0.00,0.00,VWS V14.01,2013-02-25 02:41:00,
2013-02-24 21:42:00,76.1,73.6,29.94,East,100,0.0,2.0,92,0.00,,FEW,0.00,0.00,VWS V14.01,2013-02-25 02:42:00,
2013-02-24 21:43:00,76.1,73.6,29.94,East,100,1.0,2.0,92,0.00,,FEW,0.00,0.00,VWS V14.01,2013-02-25 02:43:00,
2013-02-24 21:46:00,76.1,73.6,29.93,ESE,115,2.0,3.0,92,0.00,,FEW,0.00,0.00,VWS V14.01,2013-02-25 02:46:00,
2013-02-24 21:48:00,76.1,73.6,29.93,SE,125,2.0,3.0,92,0.00,,FEW,0.00,0.00,VWS V14.01,2013-02-25 02:48:00,
2013-02-24 21:51:00,76.1,73.6,29.93,SE,125,1.0,1.0,92,0.00,,FEW,0.00,0.00,VWS V14.01,2013-02-25 02:51:00,
2013-02-24 21:53:00,76.1,73.6,29.93,SE,125,1.0,1.0,92,0.00,,FEW,0.00,0.00,VWS V14.01,2013-02-25 02:53:00,
2013-02-24 21:56:00,76.2,74.0,29.93,SE,134,3.0,3.0,93,0.00,,FEW,0.00,0.00,VWS V14.01,2013-02-25 02:56:00,
2013-02-24 21:58:00,76.2,74.0,29.93,SE,132,3.0,3.0,93,0.00,,FEW,0.00,0.00,VWS V14.01,2013-02-25 02:58:00,
2013-02-24 22:01:00,76.3,74.1,29.93,SE,134,2.0,3.0,93,0.00,,FEW,0.00,0.00,VWS V14.01,2013-02-25 03:01:00,
2013-02-24 22:03:00,76.3,74.1,29.93,ESE,118,1.0,3.0,93,0.00,,FEW,0.00,0.00,VWS V14.01,2013-02-25 03:03:00,
2013-02-24 22:07:00,76.3,74.1,29.93,SSE,148,2.0,3.0,93,0.00,,FEW,0.00,0.00,VWS V14.01,2013-02-25 03:07:00,
2013-02-24 22:08:00,76.3,74.1,29.93,SE,142,4.0,4.0,93,0.00,,FEW,0.00,0.00,VWS V14.01,2013-02-25 03:08:00,
2013-02-24 22:12:00,76.4,74.2,29.93,SE,133,1.0,3.0,93,0.00,,FEW,0.00,0.00,VWS V14.01,2013-02-25 03:12:00,
2013-02-24 22:13:00,76.4,74.2,29.93,SE,136,1.0,3.0,93,0.00,,FEW,0.00,0.00,VWS V14.01,2013-02-25 03:13:00,
2013-02-24 22:14:00,76.4,74.2,29.93,SE,136,2.0,3.0,93,0.00,,FEW,0.00,0.00,VWS V14.01,2013-02-25 03:14:00,
2013-02-24 22:17:00,76.4,74.2,29.92,SE,141,3.0,5.0,93,0.00,,FEW,0.00,0.00,VWS V14.01,2013-02-25 03:17:00,
2013-02-24 22:18:00,76.4,74.2,29.92,SE,134,1.0,5.0,93,0.00,,FEW,0.00,0.00,VWS V14.01,2013-02-25 03:18:00,
2013-02-24 22:19:00,76.4,74.2,29.92,SE,134,1.0,5.0,93,0.00,,FEW,0.00,0.00,VWS V14.01,2013-02-25 03:19:00,
2013-02-24 22:22:00,76.4,74.2,29.92,ESE,107,2.0,3.0,93,0.00,,FEW,0.00,0.00,VWS V14.01,2013-02-25 03:22:00,
2013-02-24 22:23:00,76.4,74.2,29.92,SE,137,3.0,3.0,93,0.00,,FEW,0.00,0.00,VWS V14.01,2013-02-25 03:23:00,
2013-02-24 22:24:00,76.4,74.2,29.92,SE,134,2.0,5.0,93,0.00,,FEW,0.00,0.00,VWS V14.01,2013-02-25 03:24:00,
2013-02-24 22:27:00,76.4,74.2,29.92,SE,134,2.0,5.0,93,0.00,,FEW,0.00,0.00,VWS V14.01,2013-02-25 03:27:00,
2013-02-24 22:28:00,76.4,74.2,29.92,SE,141,1.0,5.0,93,0.00,,FEW,0.00,0.00,VWS V14.01,2013-02-25 03:28:00,
2013-02-24 22:29:00,76.4,74.2,29.92,SE,136,1.0,5.0,93,0.00,,FEW,0.00,0.00,VWS V14.01,2013-02-25 03:29:00,
2013-02-24 22:32:00,76.4,74.2,29.92,SE,140,3.0,3.0,93,0.00,,FEW,0.00,0.00,VWS V14.01,2013-02-25 03:32:00,
2013-02-24 22:33:00,76.4,74.2,29.92,SE,132,2.0,3.0,93,0.00,,FEW,0.00,0.00,VWS V14.01,2013-02-25 03:33:00,
2013-02-24 22:34:00,76.4,74.2,29.92,SE,133,2.0,3.0,93,0.00,,FEW,0.00,0.00,VWS V14.01,2013-02-25 03:34:00,
2013-02-24 22:37:00,76.4,74.2,29.92,SE,132,3.0,5.0,93,0.00,,FEW,0.00,0.00,VWS V14.01,2013-02-25 03:37:00,
2013-02-24 22:38:00,76.4,74.2,29.92,SE,140,4.0,5.0,93,0.00,,FEW,0.00,0.00,VWS V14.01,2013-02-25 03:38:00,
2013-02-24 22:39:00,76.4,74.2,29.92,SSE,148,3.0,5.0,93,0.00,,FEW,0.00,0.00,VWS V14.01,2013-02-25 03:39:00,
2013-02-24 22:43:00,76.4,74.6,29.92,SSE,159,1.0,4.0,94,0.00,,FEW,0.00,0.00,VWS V14.01,2013-02-25 03:43:00,
2013-02-24 22:44:00,76.4,74.6,29.92,SE,146,1.0,4.0,94,0.00,,FEW,0.00,0.00,VWS V14.01,2013-02-25 03:44:00,
2013-02-24 22:48:00,76.5,74.7,29.92,SE,129,2.0,5.0,94,0.00,,FEW,0.00,0.00,VWS V14.01,2013-02-25 03:48:00,
2013-02-24 22:49:00,76.5,74.7,29.92,SSE,148,4.0,5.0,94,0.00,,FEW,0.00,0.00,VWS V14.01,2013-02-25 03:49:00,
2013-02-24 22:53:00,76.5,74.7,29.92,SSE,149,2.0,5.0,94,0.00,,FEW,0.00,0.00,VWS V14.01,2013-02-25 03:53:00,
2013-02-24 22:54:00,76.5,74.7,29.92,SE,127,2.0,5.0,94,0.00,,FEW,0.00,0.00,VWS V14.01,2013-02-25 03:54:00,
2013-02-24 22:58:00,76.5,74.7,29.92,ESE,120,2.0,5.0,94,0.00,,FEW,0.00,0.00,VWS V14.01,2013-02-25 03:58:00,
2013-02-24 22:59:00,76.5,74.7,29.92,SE,126,1.0,5.0,94,0.00,,FEW,0.00,0.00,VWS V14.01,2013-02-25 03:59:00,
2013-02-24 23:03:00,76.5,74.7,29.91,SSE,150,4.0,4.0,94,0.00,,FEW,0.00,0.00,VWS V14.01,2013-02-25 04:03:00,
2013-02-24 23:04:00,76.6,74.8,29.91,SE,130,3.0,4.0,94,0.00,,FEW,0.00,0.00,VWS V14.01,2013-02-25 04:04:00,
2013-02-24 23:05:00,76.6,74.8,29.91,SSE,152,3.0,4.0,94,0.00,,FEW,0.00,0.00,VWS V14.01,2013-02-25 04:05:00,
2013-02-24 23:08:00,76.6,74.8,29.91,SSE,147,2.0,4.0,94,0.00,,FEW,0.00,0.00,VWS V14.01,2013-02-25 04:08:00,
2013-02-24 23:09:00,76.5,74.7,29.91,SE,126,2.0,4.0,94,0.00,,FEW,0.00,0.00,VWS V14.01,2013-02-25 04:09:00,
2013-02-24 23:10:00,76.5,74.7,29.91,SE,140,3.0,4.0,94,0.00,,FEW,0.00,0.00,VWS V14.01,2013-02-25 04:10:00,
2013-02-24 23:13:00,76.5,74.7,29.91,SE,144,3.0,5.0,94,0.00,,FEW,0.00,0.00,VWS V14.01,2013-02-25 04:13:00,
2013-02-24 23:14:00,76.5,74.7,29.91,SSE,158,2.0,5.0,94,0.00,,FEW,0.00,0.00,VWS V14.01,2013-02-25 04:14:00,
2013-02-24 23:15:00,76.5,74.7,29.91,SSE,147,2.0,5.0,94,0.00,,FEW,0.00,0.00,VWS V14.01,2013-02-25 04:15:00,
2013-02-24 23:19:00,76.4,74.6,29.91,SSE,155,3.0,5.0,94,0.00,,FEW,0.00,0.00,VWS V14.01,2013-02-25 04:19:00,
2013-02-24 23:20:00,76.4,74.6,29.91,ESE,115,3.0,5.0,94,0.00,,FEW,0.00,0.00,VWS V14.01,2013-02-25 04:20:00,
2013-02-24 23:24:00,76.4,74.6,29.91,South,171,2.0,5.0,94,0.00,,FEW,0.00,0.00,VWS V14.01,2013-02-25 04:24:00,
2013-02-24 23:25:00,76.4,74.6,29.91,SE,128,4.0,5.0,94,0.00,,FEW,0.00,0.00,VWS V14.01,2013-02-25 04:25:00,
2013-02-24 23:29:00,76.5,74.7,29.91,SE,144,2.0,5.0,94,0.00,,FEW,0.00,0.00,VWS V14.01,2013-02-25 04:29:00,
2013-02-24 23:30:00,76.5,74.7,29.91,SE,141,3.0,5.0,94,0.00,,FEW,0.00,0.00,VWS V14.01,2013-02-25 04:30:00,
2013-02-24 23:34:00,76.6,74.8,29.91,ESE,122,3.0,4.0,94,0.00,,FEW,0.00,0.00,VWS V14.01,2013-02-25 04:34:00,
2013-02-24 23:35:00,76.6,74.8,29.91,SE,136,2.0,4.0,94,0.00,,FEW,0.00,0.00,VWS V14.01,2013-02-25 04:35:00,
2013-02-24 23:36:00,76.6,74.8,29.91,SE,139,4.0,4.0,94,0.00,,FEW,0.00,0.00,VWS V14.01,2013-02-25 04:36:00,
2013-02-24 23:39:00,76.7,74.8,29.91,SE,134,3.0,5.0,94,0.00,,FEW,0.00,0.00,VWS V14.01,2013-02-25 04:39:00,
2013-02-24 23:40:00,76.7,74.8,29.91,SE,136,2.0,5.0,94,0.00,,FEW,0.00,0.00,VWS V14.01,2013-02-25 04:40:00,
2013-02-24 23:41:00,76.7,74.8,29.91,ESE,120,3.0,6.0,94,0.00,,FEW,0.00,0.00,VWS V14.01,2013-02-25 04:41:00,
2013-02-24 23:44:00,76.7,74.8,29.91,SE,131,1.0,4.0,94,0.00,,FEW,0.00,0.00,VWS V14.01,2013-02-25 04:44:00,
2013-02-24 23:45:00,76.7,74.8,29.91,SSE,154,2.0,4.0,94,0.00,,FEW,0.00,0.00,VWS V14.01,2013-02-25 04:45:00,
2013-02-24 23:46:00,76.7,74.8,29.91,SE,143,2.0,4.0,94,0.00,,FEW,0.00,0.00,VWS V14.01,2013-02-25 04:46:00,
2013-02-24 23:49:00,76.7,74.8,29.91,SE,136,4.0,4.0,94,0.00,,FEW,0.00,0.00,VWS V14.01,2013-02-25 04:49:00,
2013-02-24 23:50:00,76.7,74.8,29.91,SE,141,4.0,5.0,94,0.00,,FEW,0.00,0.00,VWS V14.01,2013-02-25 04:50:00,
2013-02-24 23:51:00,76.7,74.8,29.91,SE,129,2.0,5.0,94,0.00,,FEW,0.00,0.00,VWS V14.01,2013-02-25 04:51:00,
2013-02-24 23:54:00,76.7,74.5,29.91,SSE,147,5.0,7.0,93,0.00,,FEW,0.00,0.00,VWS V14.01,2013-02-25 04:54:00,
2013-02-24 23:55:00,76.7,74.5,29.91,SSE,155,3.0,7.0,93,0.00,,FEW,0.00,0.00,VWS V14.01,2013-02-25 04:55:00,
2013-02-24 23:56:00,76.7,74.5,29.91,East,101,3.0,7.0,93,0.00,,FEW,0.00,0.00,VWS V14.01,2013-02-25 04:56:00,
2013-02-24 23:59:00,76.7,74.5,29.91,SSE,149,2.0,7.0,93,0.00,,FEW,0.00,0.00,VWS V14.01,2013-02-25 04:59:00,